FW4770 Weather Reports


time (UTC)temp
C
wind
direction
speed
KPH
gust
KPH
rain 1hr
cm
rain 24hr
cm
rain mn
cm
humidity
%
barometer
mb
20260905123314 18 132 3.2 6.4 0.00 0.00 0.00 98 1017.2
20260905123219 18 133 3.2 6.4 0.00 0.00 0.00 98 1017.3
20260905123103 18 133 3.2 6.4 0.00 0.00 0.00 98 1017.3
20260905123007 18 133 3.2 6.4 0.00 0.00 0.00 98 1017.3
20260905122856 18 148 3.2 8.0 0.00 0.00 0.00 98 1017.2
20260905122822 18 149 4.8 8.0 0.00 0.00 0.00 98 1017.2
20260905122700 18 150 4.8 8.0 0.00 0.00 0.00 98 1017.3
20260905122604 18 118 3.2 6.4 0.00 0.00 0.00 98 1017.3
20260905122509 18 129 3.2 6.4 0.00 0.00 0.00 98 1017.3
20260905122414 18 129 4.8 9.7 0.00 0.00 0.00 98 1017.3
20260905122306 18 129 4.8 9.7 0.00 0.00 0.00 98 1017.3
20260905122206 18 118 3.2 9.7 0.00 0.00 0.00 98 1017.4
20260905122130 18 117 4.8 9.7 0.00 0.00 0.00 98 1017.4
20260905122014 18 116 4.8 9.7 0.00 0.00 0.00 97 1017.5
20260905121919 18 112 4.8 9.7 0.00 0.00 0.00 97 1017.5
20260905121802 18 107 4.8 9.7 0.00 0.00 0.00 97 1017.6
20260905121707 18 106 4.8 9.7 0.00 0.00 0.00 98 1017.6
20260905121615 18 120 4.8 8.0 0.00 0.00 0.00 98 1017.5
20260905121500 18 121 4.8 8.0 0.00 0.00 0.00 98 1017.5
20260905121425 18 134 4.8 9.7 0.00 0.00 0.00 98 1017.5
20260905121309 18 135 4.8 11.3 0.00 0.00 0.00 98 1017.5
20260905121213 18 135 4.8 11.3 0.00 0.00 0.00 98 1017.5
20260905121058 18 136 4.8 11.3 0.00 0.00 0.00 98 1017.5
20260905121026 18 114 4.8 11.3 0.00 0.00 0.00 98 1017.5
20260905120910 18 114 4.8 11.3 0.00 0.00 0.00 98 1017.5
20260905120816 18 113 4.8 11.3 0.00 0.00 0.00 98 1017.4
20260905120700 18 110 4.8 11.3 0.00 0.00 0.00 98 1017.5
20260905120625 18 107 6.4 11.3 0.00 0.00 0.00 97 1017.5
20260905120509 18 109 6.4 11.3 0.00 0.00 0.00 97 1017.5
20260905120358 18 105 6.4 11.3 0.00 0.00 0.00 97 1017.5
20260905120322 18 108 6.4 11.3 0.00 0.00 0.00 97 1017.5
20260905120159 18 99 6.4 11.3 0.00 0.00 0.00 97 1017.6
20260905120104 18 109 6.4 11.3 0.00 0.00 0.00 97 1017.6
20260905120009 18 111 6.4 11.3 0.00 0.00 0.00 97 1017.6
20260905115914 18 102 6.4 11.3 0.00 0.00 0.00 97 1017.7
20260905115802 18 92 6.4 11.3 0.00 0.00 0.00 97 1017.7
20260905115727 18 100 6.4 12.9 0.00 0.00 0.00 97 1017.7
20260905115611 18 103 6.4 12.9 0.00 0.00 0.00 97 1017.7
20260905115536 18 96 6.4 12.9 0.00 0.00 0.00 97 1017.6
20260905115400 18 105 6.4 12.9 0.00 0.00 0.00 97 1017.6
20260905115326 18 103 6.4 12.9 0.00 0.00 0.00 97 1017.6
20260905115209 18 95 8.0 12.9 0.00 0.00 0.00 97 1017.6
20260905115058 18 92 8.0 12.9 0.00 0.00 0.00 97 1017.5
20260905115003 18 94 6.4 12.9 0.00 0.00 0.00 97 1017.6
20260905114906 18 84 6.4 12.9 0.00 0.00 0.00 97 1017.6
20260905114811 18 108 6.4 11.3 0.00 0.00 0.00 97 1017.5
20260905114736 18 94 6.4 11.3 0.00 0.00 0.00 97 1017.5
20260905114600 18 90 6.4 9.7 0.00 0.00 0.00 97 1017.5
20260905114505 18 71 4.8 9.7 0.00 0.00 0.00 97 1017.6
20260905114413 18 80 4.8 9.7 0.00 0.00 0.00 97 1017.6
20260905114258 18 103 4.8 9.7 0.00 0.00 0.00 97 1017.6
20260905114203 18 105 4.8 9.7 0.00 0.00 0.00 97 1017.6
20260905114107 18 105 6.4 9.7 0.00 0.00 0.00 97 1017.6
20260905114012 18 88 6.4 9.7 0.00 0.00 0.00 97 1017.6
20260905113901 18 78 4.8 9.7 0.00 0.00 0.00 97 1017.5
20260905113806 18 68 6.4 9.7 0.00 0.00 0.00 97 1017.5
20260905113710 18 84 6.4 9.7 0.00 0.00 0.00 97 1017.5
20260905113615 18 83 8.0 9.7 0.00 0.00 0.00 97 1017.4
20260905113520 18 77 8.0 11.3 0.00 0.00 0.00 97 1017.4
20260905113358 18 82 8.0 11.3 0.00 0.00 0.00 97 1017.3
20260905113306 18 92 8.0 11.3 0.00 0.00 0.00 97 1017.3
20260905113211 18 91 6.4 11.3 0.00 0.00 0.00 97 1017.3
20260905113056 18 96 8.0 11.3 0.00 0.00 0.00 97 1017.3
20260905113001 18 98 8.0 11.3 0.00 0.00 0.00 97 1017.3
20260905112906 18 107 6.4 11.3 0.00 0.00 0.00 97 1017.3
20260905112811 18 90 4.8 9.7 0.00 0.00 0.00 97 1017.3
20260905112700 18 103 4.8 9.7 0.00 0.00 0.00 97 1017.3
20260905112605 18 103 4.8 9.7 0.00 0.00 0.00 97 1017.4
20260905112510 18 103 3.2 9.7 0.00 0.00 0.00 97 1017.4
20260905112415 18 103 3.2 9.7 0.00 0.00 0.00 97 1017.3
20260905112321 18 71 4.8 9.7 0.00 0.00 0.00 97 1017.3
20260905112204 18 109 4.8 9.7 0.00 0.00 0.00 97 1017.3
20260905112112 18 88 4.8 9.7 0.00 0.00 0.00 97 1017.3
20260905112017 18 86 4.8 9.7 0.00 0.00 0.00 97 1017.2
20260905111921 18 85 4.8 9.7 0.00 0.00 0.00 97 1017.2
20260905111759 18 97 4.8 9.7 0.00 0.00 0.00 97 1017.2
20260905111704 18 98 4.8 9.7 0.00 0.00 0.00 97 1017.2
20260905111628 18 99 4.8 9.7 0.00 0.00 0.00 97 1017.2
20260905111512 18 99 4.8 9.7 0.00 0.00 0.00 97 1017.1
20260905111421 18 101 4.8 9.7 0.00 0.00 0.00 97 1017.1
20260905111305 18 105 4.8 9.7 0.00 0.00 0.00 97 1017.1
20260905111211 18 106 4.8 9.7 0.00 0.00 0.00 97 1017.1
20260905111115 18 106 4.8 9.7 0.00 0.00 0.00 97 1017.1
20260905111000 18 107 3.2 9.7 0.00 0.00 0.00 97 1017.1
20260905110905 18 97 4.8 9.7 0.00 0.00 0.00 97 1017.1
20260905110830 18 97 4.8 9.7 0.00 0.00 0.00 97 1017.1
20260905110718 18 97 6.4 9.7 0.00 0.00 0.00 97 1017.2
20260905110601 18 97 6.4 9.7 0.00 0.00 0.00 97 1017.2
20260905110506 18 97 6.4 9.7 0.00 0.00 0.00 97 1017.2
20260905110432 18 93 4.8 9.7 0.00 0.00 0.00 97 1017.2
20260905110315 18 95 4.8 6.4 0.00 0.00 0.00 97 1017.2
20260905110200 18 96 4.8 6.4 0.00 0.00 0.00 97 1017.1
20260905110109 18 96 3.2 6.4 0.00 0.00 0.00 97 1017.1
20260905110014 18 97 4.8 6.4 0.00 0.00 0.00 97 1017.1
20260905105858 18 97 4.8 6.4 0.00 0.00 0.00 97 1017.2
20260905105802 18 97 4.8 6.4 0.00 0.00 0.00 97 1017.2
20260905105707 18 117 4.8 6.4 0.00 0.00 0.00 97 1017.2
20260905105612 18 117 4.8 6.4 0.00 0.00 0.00 97 1017.1
20260905105501 18 117 4.8 6.4 0.00 0.00 0.00 97 1017.2
20260905105406 18 119 4.8 6.4 0.00 0.00 0.00 97 1017.2
20260905105331 18 120 4.8 6.4 0.00 0.00 0.00 97 1017.1
20260905105215 18 120 4.8 6.4 0.00 0.00 0.00 97 1017.1
20260905105140 18 120 4.8 6.4 0.00 0.00 0.00 97 1017.1
20260905104957 18 120 4.8 6.4 0.00 0.00 0.00 97 1017.2
20260905104902 18 121 3.2 6.4 0.00 0.00 0.00 97 1017.2
20260905104811 18 121 3.2 6.4 0.00 0.00 0.00 97 1017.2
20260905104656 18 121 3.2 6.4 0.00 0.00 0.00 97 1017.2
20260905104621 18 123 3.2 6.4 0.00 0.00 0.00 97 1017.2
20260905104459 18 123 3.2 6.4 0.00 0.00 0.00 97 1017.1
20260905104404 18 123 3.2 6.4 0.00 0.00 0.00 97 1017.1
20260905104329 18 123 3.2 6.4 0.00 0.00 0.00 97 1017.1
20260905104157 18 123 3.2 6.4 0.00 0.00 0.00 97 1017.0
20260905104122 18 123 3.2 6.4 0.00 0.00 0.00 97 1017.0
20260905104026 18 123 3.2 6.4 0.00 0.00 0.00 97 1017.0
20260905103910 18 123 4.8 6.4 0.00 0.00 0.00 97 1017.0
20260905103815 18 123 4.8 6.4 0.00 0.00 0.00 97 1016.9
20260905103656 18 127 3.2 4.8 0.00 0.00 0.00 97 1017.0
20260905103601 18 127 3.2 4.8 0.00 0.00 0.00 97 1016.9
20260905103510 18 127 3.2 4.8 0.00 0.00 0.00 97 1016.9
20260905103415 18 127 3.2 4.8 0.00 0.00 0.00 97 1017.0
20260905103319 18 127 3.2 4.8 0.00 0.00 0.00 97 1016.9
20260905103157 18 127 3.2 4.8 0.00 0.00 0.00 97 1017.0
20260905103102 18 127 3.2 4.8 0.00 0.00 0.00 97 1017.0
20260905103006 18 127 3.2 4.8 0.00 0.00 0.00 97 1017.0
20260905102916 18 127 3.2 4.8 0.00 0.00 0.00 97 1017.0
20260905102800 18 127 1.6 4.8 0.00 0.00 0.00 97 1017.1
20260905102705 18 127 1.6 4.8 0.00 0.00 0.00 97 1017.2
20260905102610 18 127 1.6 4.8 0.00 0.00 0.00 97 1017.2
20260905102534 18 127 1.6 4.8 0.00 0.00 0.00 97 1017.1
20260905102358 18 127 1.6 6.4 0.00 0.00 0.00 97 1017.0
20260905102306 18 127 3.2 6.4 0.00 0.00 0.00 97 1017.0
20260905102211 18 127 3.2 6.4 0.00 0.00 0.00 97 1017.0
20260905102056 18 127 3.2 6.4 0.00 0.00 0.00 97 1016.8
20260905102001 18 127 1.6 6.4 0.00 0.00 0.00 97 1016.8
20260905101926 18 127 1.6 6.4 0.00 0.00 0.00 97 1016.8
20260905101811 18 127 3.2 6.4 0.00 0.00 0.00 97 1016.8
20260905101659 18 127 4.8 6.4 0.00 0.00 0.00 97 1016.6
20260905101603 18 127 3.2 4.8 0.00 0.00 0.00 97 1016.6
20260905101508 18 128 3.2 4.8 0.00 0.00 0.00 97 1016.6
20260905101434 18 128 3.2 6.4 0.00 0.00 0.00 97 1016.6
20260905101317 18 128 3.2 6.4 0.00 0.00 0.00 97 1016.7
20260905101242 18 128 3.2 6.4 0.00 0.00 0.00 97 1016.6
20260905101059 18 128 3.2 6.4 0.00 0.00 0.00 97 1016.6
20260905101009 18 128 3.2 6.4 0.00 0.00 0.00 97 1016.6
20260905100913 18 128 3.2 6.4 0.00 0.00 0.00 97 1016.6
20260905100758 18 128 3.2 6.4 0.00 0.00 0.00 97 1016.5
20260905100722 18 128 3.2 6.4 0.00 0.00 0.00 97 1016.5
20260905100605 18 128 4.8 6.4 0.00 0.00 0.00 97 1016.5
20260905100509 18 128 4.8 6.4 0.00 0.00 0.00 97 1016.5
20260905100418 18 129 4.8 8.0 0.00 0.00 0.00 97 1016.4
20260905100323 18 129 4.8 8.0 0.00 0.00 0.00 97 1016.4
20260905100225 18 130 4.8 8.0 0.00 0.00 0.00 97 1016.4
20260905100108 18 131 4.8 8.0 0.00 0.00 0.00 97 1016.4
20260905100032 18 132 4.8 8.0 0.00 0.00 0.00 97 1016.4
20260905095856 18 134 4.8 8.0 0.00 0.00 0.00 97 1016.3
20260905095801 18 136 4.8 8.0 0.00 0.00 0.00 97 1016.3
20260905095706 18 136 3.2 8.0 0.00 0.00 0.00 97 1016.3
20260905095615 18 137 4.8 8.0 0.00 0.00 0.00 97 1016.3
20260905095500 18 137 4.8 9.7 0.00 0.00 0.00 97 1016.2
20260905095405 18 127 4.8 9.7 0.00 0.00 0.00 97 1016.3
20260905095330 18 127 3.2 9.7 0.00 0.00 0.00 97 1016.3
20260905095214 18 127 3.2 9.7 0.00 0.00 0.00 97 1016.3
20260905095058 18 127 4.8 9.7 0.00 0.00 0.00 97 1016.3
20260905095007 18 130 4.8 9.7 0.00 0.00 0.00 97 1016.3
20260905094912 18 113 4.8 9.7 0.00 0.00 0.00 97 1016.3
20260905094756 18 119 4.8 9.7 0.00 0.00 0.00 97 1016.3
20260905094721 18 119 4.8 9.7 0.00 0.00 0.00 97 1016.3
20260905094605 18 119 4.8 9.7 0.00 0.00 0.00 97 1016.2
20260905094511 18 119 3.2 9.7 0.00 0.00 0.00 96 1016.2
20260905094419 18 119 4.8 9.7 0.00 0.00 0.00 97 1016.3
20260905094257 18 121 4.8 9.7 0.00 0.00 0.00 97 1016.3
20260905094221 18 121 4.8 9.7 0.00 0.00 0.00 97 1016.3
20260905094059 18 126 3.2 6.4 0.00 0.00 0.00 96 1016.3
20260905094004 18 126 3.2 6.4 0.00 0.00 0.00 97 1016.2
20260905093909 18 126 4.8 6.4 0.00 0.00 0.00 96 1016.2
20260905093818 18 126 4.8 6.4 0.00 0.00 0.00 97 1016.3
20260905093742 18 125 4.8 6.4 0.00 0.00 0.00 97 1016.3
20260905093559 18 126 3.2 6.4 0.00 0.00 0.00 97 1016.3
20260905093524 18 126 3.2 6.4 0.00 0.00 0.00 97 1016.3
20260905093408 18 126 4.8 6.4 0.00 0.00 0.00 97 1016.3
20260905093332 18 124 4.8 6.4 0.00 0.00 0.00 97 1016.3
20260905093215 18 124 3.2 6.4 0.00 0.00 0.00 96 1016.3
20260905093104 18 126 3.2 6.4 0.00 0.00 0.00 96 1016.3
20260905093029 18 126 3.2 6.4 0.00 0.00 0.00 96 1016.3
20260905092913 18 126 3.2 6.4 0.00 0.00 0.00 96 1016.3
20260905092758 18 126 3.2 11.3 0.00 0.00 0.00 96 1016.4
20260905092703 18 126 4.8 11.3 0.00 0.00 0.00 96 1016.4
20260905092627 18 126 4.8 11.3 0.00 0.00 0.00 96 1016.4
20260905092531 18 126 4.8 11.3 0.00 0.00 0.00 96 1016.3
20260905092400 18 134 4.8 11.3 0.00 0.00 0.00 96 1016.3
20260905092323 18 134 4.8 11.3 0.00 0.00 0.00 96 1016.3
20260905092207 18 134 4.8 11.3 0.00 0.00 0.00 96 1016.3
20260905092112 18 120 6.4 11.3 0.00 0.00 0.00 96 1016.3
20260905092017 18 118 6.4 11.3 0.00 0.00 0.00 96 1016.3
20260905091942 18 111 6.4 11.3 0.00 0.00 0.00 96 1016.4
20260905091759 18 119 6.4 11.3 0.00 0.00 0.00 96 1016.4
20260905091708 18 130 6.4 12.9 0.00 0.00 0.00 96 1016.4
20260905091613 18 130 6.4 12.9 0.00 0.00 0.00 96 1016.4
20260905091458 18 132 6.4 12.9 0.00 0.00 0.00 96 1016.4
20260905091403 18 111 6.4 12.9 0.00 0.00 0.00 96 1016.4
20260905091308 18 112 6.4 12.9 0.00 0.00 0.00 96 1016.4
20260905091213 18 112 8.0 12.9 0.00 0.00 0.00 96 1016.5
20260905091102 18 109 8.0 12.9 0.00 0.00 0.00 96 1016.5
20260905091007 18 113 8.0 12.9 0.00 0.00 0.00 96 1016.5
20260905090912 18 116 8.0 12.9 0.00 0.00 0.00 96 1016.6
20260905090817 18 109 6.4 12.9 0.00 0.00 0.00 96 1016.6
20260905090742 18 108 4.8 12.9 0.00 0.00 0.00 96 1016.5
20260905090559 18 105 6.4 12.9 0.00 0.00 0.00 96 1016.6
20260905090509 18 100 6.4 12.9 0.00 0.00 0.00 96 1016.6
20260905090413 18 108 4.8 14.5 0.00 0.00 0.00 96 1016.6
20260905090318 18 122 4.8 14.5 0.00 0.00 0.00 96 1016.7
20260905090221 18 102 6.4 14.5 0.00 0.00 0.00 96 1016.7
20260905090059 18 106 8.0 14.5 0.00 0.00 0.00 96 1016.7
20260905090004 18 101 6.4 14.5 0.00 0.00 0.00 96 1016.8
20260905085909 18 111 6.4 14.5 0.00 0.00 0.00 96 1016.8
20260905085758 18 109 8.0 14.5 0.00 0.00 0.00 96 1016.7
20260905085703 18 115 8.0 14.5 0.00 0.00 0.00 96 1016.8
20260905085627 18 106 9.7 14.5 0.00 0.00 0.00 96 1016.8
20260905085511 18 85 8.0 14.5 0.00 0.00 0.00 96 1016.8
20260905085356 18 109 6.4 14.5 0.00 0.00 0.00 96 1016.9
20260905085305 18 99 6.4 14.5 0.00 0.00 0.00 96 1016.9
20260905085210 18 111 4.8 14.5 0.00 0.00 0.00 96 1016.9
20260905085135 18 107 6.4 14.5 0.00 0.00 0.00 96 1016.9
20260905084958 18 133 8.0 14.5 0.00 0.00 0.00 96 1016.9
20260905084904 18 107 8.0 14.5 0.00 0.00 0.00 96 1016.9
20260905084828 18 114 8.0 14.5 0.00 0.00 0.00 96 1016.9
20260905084710 18 127 8.0 14.5 0.00 0.00 0.00 96 1016.9
20260905084616 18 126 8.0 11.3 0.00 0.00 0.00 96 1016.8
20260905084504 18 113 8.0 11.3 0.00 0.00 0.00 96 1016.8
20260905084409 18 123 6.4 11.3 0.00 0.00 0.00 96 1016.8
20260905084313 18 117 6.4 11.3 0.00 0.00 0.00 96 1016.8
20260905084158 18 110 8.0 11.3 0.00 0.00 0.00 96 1016.9
20260905084103 18 121 6.4 11.3 0.00 0.00 0.00 96 1016.8
20260905084028 18 107 6.4 11.3 0.00 0.00 0.00 96 1016.8
20260905083856 18 128 8.0 11.3 0.00 0.00 0.00 95 1016.8
20260905083801 18 107 6.4 11.3 0.00 0.00 0.00 96 1016.9
20260905083706 18 108 4.8 11.3 0.00 0.00 0.00 95 1016.9
20260905083611 18 130 4.8 11.3 0.00 0.00 0.00 96 1016.8
20260905083515 18 131 4.8 11.3 0.00 0.00 0.00 95 1016.9
20260905083400 18 131 4.8 11.3 0.00 0.00 0.00 95 1016.9
20260905083307 18 136 4.8 11.3 0.00 0.00 0.00 95 1016.9
20260905083211 18 136 4.8 11.3 0.00 0.00 0.00 95 1016.9
20260905083056 18 136 4.8 11.3 0.00 0.00 0.00 96 1017.0
20260905083021 18 138 4.8 11.3 0.00 0.00 0.00 95 1016.9
20260905082905 18 123 4.8 11.3 0.00 0.00 0.00 95 1016.9
20260905082830 18 126 4.8 11.3 0.00 0.00 0.00 96 1016.9
20260905082733 18 125 6.4 14.5 0.00 0.00 0.00 96 1016.9
20260905082601 18 123 6.4 14.5 0.00 0.00 0.00 96 1016.9
20260905082506 18 138 6.4 14.5 0.00 0.00 0.00 96 1016.9
20260905082411 18 130 6.4 14.5 0.00 0.00 0.00 95 1017.0
20260905082256 18 125 6.4 14.5 0.00 0.00 0.00 95 1017.0
20260905082201 18 126 6.4 14.5 0.00 0.00 0.00 95 1017.0
20260905082105 18 116 8.0 14.5 0.00 0.00 0.00 95 1017.0
20260905082013 18 127 9.7 14.5 0.00 0.00 0.00 95 1017.0
20260905081918 18 109 8.0 14.5 0.00 0.00 0.00 95 1017.0
20260905081803 18 119 8.0 11.3 0.00 0.00 0.00 95 1017.0
20260905081706 18 117 6.4 11.3 0.00 0.00 0.00 95 1017.0
20260905081611 18 117 6.4 11.3 0.00 0.00 0.00 95 1017.0
20260905081537 18 116 6.4 11.3 0.00 0.00 0.00 95 1017.0
20260905081400 18 125 6.4 11.3 0.00 0.00 0.00 95 1017.1
20260905081309 18 126 8.0 11.3 0.00 0.00 0.00 95 1017.1
20260905081213 18 115 8.0 11.3 0.00 0.00 0.00 95 1017.1
20260905081118 18 104 6.4 11.3 0.00 0.00 0.00 95 1017.0
20260905081043 18 134 4.8 11.3 0.00 0.00 0.00 95 1017.1
20260905080859 18 116 4.8 11.3 0.00 0.00 0.00 95 1017.0
20260905080804 18 116 4.8 11.3 0.00 0.00 0.00 95 1017.0
20260905080728 18 117 4.8 11.3 0.00 0.00 0.00 95 1017.0
20260905080556 18 122 4.8 11.3 0.00 0.00 0.00 95 1017.0
20260905080500 18 122 4.8 11.3 0.00 0.00 0.00 95 1017.1
20260905080404 18 133 4.8 11.3 0.00 0.00 0.00 95 1017.0
20260905080329 18 133 6.4 11.3 0.00 0.00 0.00 95 1017.0
20260905080214 18 132 8.0 11.3 0.00 0.00 0.00 95 1017.1
20260905080058 18 115 6.4 11.3 0.00 0.00 0.00 95 1017.0
20260905080005 18 123 6.4 11.3 0.00 0.00 0.00 95 1017.1
20260905075909 18 132 6.4 11.3 0.00 0.00 0.00 95 1017.1
20260905075813 18 127 6.4 11.3 0.00 0.00 0.00 95 1017.1
20260905075718 18 135 6.4 11.3 0.00 0.00 0.00 95 1017.2
20260905075601 18 137 6.4 11.3 0.00 0.00 0.00 95 1017.1
20260905075505 18 117 6.4 14.5 0.00 0.00 0.00 95 1017.1
20260905075410 18 107 4.8 14.5 0.00 0.00 0.00 95 1017.1
20260905075259 18 109 4.8 14.5 0.00 0.00 0.00 95 1017.2
20260905075203 18 107 6.4 14.5 0.00 0.00 0.00 95 1017.1
20260905075128 18 108 8.0 14.5 0.00 0.00 0.00 95 1017.1
20260905075010 18 106 6.4 14.5 0.00 0.00 0.00 95 1017.2
20260905074915 18 103 4.8 14.5 0.00 0.00 0.00 95 1017.1
20260905074800 18 120 8.0 14.5 0.00 0.00 0.00 95 1017.2
20260905074709 18 103 9.7 14.5 0.00 0.00 0.00 95 1017.2
20260905074614 18 116 8.0 12.9 0.00 0.00 0.00 95 1017.2
20260905074519 18 111 8.0 12.9 0.00 0.00 0.00 95 1017.2
20260905074403 18 105 6.4 12.9 0.00 0.00 0.00 95 1017.1
20260905074327 18 138 6.4 12.9 0.00 0.00 0.00 95 1017.1
20260905074210 18 102 4.8 11.3 0.00 0.00 0.00 95 1017.1
20260905074136 18 136 4.8 11.3 0.00 0.00 0.00 95 1017.1
20260905074023 18 116 4.8 11.3 0.00 0.00 0.00 95 1017.0
20260905073906 18 117 6.4 11.3 0.00 0.00 0.00 95 1017.0
20260905073811 18 115 8.0 11.3 0.00 0.00 0.00 95 1017.0
20260905073736 18 112 8.0 11.3 0.00 0.00 0.00 95 1017.0
20260905073600 18 131 8.0 11.3 0.00 0.00 0.00 95 1017.0
20260905073505 18 118 8.0 11.3 0.00 0.00 0.00 95 1017.0
20260905073409 18 114 4.8 11.3 0.00 0.00 0.00 95 1017.0
20260905073258 18 127 4.8 8.0 0.00 0.00 0.00 95 1016.9
20260905073222 18 127 3.2 8.0 0.00 0.00 0.00 95 1017.0
20260905073105 18 146 1.6 8.0 0.00 0.00 0.00 95 1016.9
20260905073010 18 147 3.2 8.0 0.00 0.00 0.00 95 1016.9
20260905072915 18 147 3.2 8.0 0.00 0.00 0.00 95 1016.9
20260905072820 18 147 4.8 8.0 0.00 0.00 0.00 95 1016.9
20260905072708 18 148 4.8 8.0 0.00 0.00 0.00 95 1016.9
20260905072614 18 131 4.8 11.3 0.00 0.00 0.00 95 1016.9
20260905072518 18 127 4.8 11.3 0.00 0.00 0.00 95 1016.9
20260905072356 18 124 3.2 11.3 0.00 0.00 0.00 95 1017.0
20260905072321 18 124 4.8 11.3 0.00 0.00 0.00 95 1017.0
20260905072159 18 119 6.4 11.3 0.00 0.00 0.00 95 1017.0
20260905072108 18 110 6.4 11.3 0.00 0.00 0.00 95 1017.0
20260905072034 18 107 6.4 11.3 0.00 0.00 0.00 95 1017.0
20260905071917 18 123 6.4 11.3 0.00 0.00 0.00 95 1017.0
20260905071842 18 123 6.4 11.3 0.00 0.00 0.00 95 1016.9
20260905071659 18 128 4.8 8.0 0.00 0.00 0.00 95 1016.9
20260905071604 18 128 4.8 6.4 0.00 0.00 0.00 95 1017.0
20260905071508 18 128 3.2 11.3 0.00 0.00 0.00 95 1017.0
20260905071357 18 117 3.2 11.3 0.00 0.00 0.00 95 1016.9
20260905071302 18 117 3.2 11.3 0.00 0.00 0.00 95 1016.9
20260905071207 18 117 1.6 11.3 0.00 0.00 0.00 95 1016.9
20260905071113 18 117 3.2 11.3 0.00 0.00 0.00 95 1016.9
20260905071017 18 117 4.8 11.3 0.00 0.00 0.00 95 1016.9
20260905070920 18 116 4.8 11.3 0.00 0.00 0.00 95 1017.0
20260905070803 18 115 6.4 11.3 0.00 0.00 0.00 95 1016.9
20260905070711 18 115 6.4 11.3 0.00 0.00 0.00 95 1016.9
20260905070615 18 108 6.4 11.3 0.00 0.00 0.00 95 1016.8
20260905070521 18 119 4.8 11.3 0.00 0.00 0.00 95 1016.9
20260905070358 18 124 4.8 11.3 0.00 0.00 0.00 95 1016.9
20260905070323 18 124 4.8 11.3 0.00 0.00 0.00 95 1016.9
20260905070200 18 124 6.4 11.3 0.00 0.00 0.00 95 1016.9
20260905070109 18 108 8.0 11.3 0.00 0.00 0.00 95 1016.9
20260905070014 18 111 6.4 11.3 0.00 0.00 0.00 95 1017.0
20260905065859 18 119 4.8 12.9 0.00 0.00 0.00 95 1017.0
20260905065804 18 120 6.4 12.9 0.00 0.00 0.00 95 1017.0
20260905065709 18 130 6.4 12.9 0.00 0.00 0.00 95 1017.0
20260905065558 18 134 8.0 12.9 0.00 0.00 0.00 95 1017.0
20260905065504 18 108 6.4 12.9 0.00 0.00 0.00 95 1017.0
20260905065408 18 113 6.4 12.9 0.00 0.00 0.00 95 1017.0
20260905065313 18 117 6.4 12.9 0.00 0.00 0.00 95 1017.0
20260905065219 18 102 9.7 12.9 0.00 0.00 0.00 95 1017.0
20260905065102 18 113 9.7 12.9 0.00 0.00 0.00 95 1017.0
20260905065006 18 113 9.7 12.9 0.00 0.00 0.00 95 1017.0
20260905064915 18 118 8.0 12.9 0.00 0.00 0.00 95 1017.0
20260905064820 18 107 8.0 12.9 0.00 0.00 0.00 95 1017.0
20260905064658 18 113 9.7 12.9 0.00 0.00 0.00 95 1017.0
20260905064602 18 96 9.7 12.9 0.00 0.00 0.00 95 1017.0
20260905064527 18 105 8.0 12.9 0.00 0.00 0.00 95 1017.0
20260905064431 18 88 6.4 12.9 0.00 0.00 0.00 95 1016.9
20260905064259 18 117 8.0 12.9 0.00 0.00 0.00 95 1017.1
20260905064225 18 120 8.0 12.9 0.00 0.00 0.00 95 1017.0
20260905064109 18 88 8.0 12.9 0.00 0.00 0.00 95 1017.0
20260905064014 18 110 6.4 12.9 0.00 0.00 0.00 95 1016.9
20260905063919 18 95 8.0 12.9 0.00 0.00 0.00 95 1017.0
20260905063823 18 100 9.7 12.9 0.00 0.00 0.00 95 1017.0
20260905063705 18 79 9.7 14.5 0.00 0.00 0.00 94 1017.0
20260905063610 18 102 9.7 14.5 0.00 0.00 0.00 95 1017.1
20260905063458 18 92 8.0 14.5 0.00 0.00 0.00 95 1017.1
20260905063422 18 81 8.0 14.5 0.00 0.00 0.00 95 1017.1
20260905063300 18 90 8.0 14.5 0.00 0.00 0.00 94 1017.0
20260905063204 18 74 9.7 14.5 0.00 0.00 0.00 94 1017.0
20260905063108 18 99 8.0 14.5 0.00 0.00 0.00 94 1017.0
20260905063013 18 105 9.7 14.5 0.00 0.00 0.00 95 1017.0
20260905062902 18 103 11.3 14.5 0.00 0.00 0.00 95 1017.0
20260905062806 18 109 9.7 12.9 0.00 0.00 0.00 95 1017.0
20260905062711 18 86 8.0 12.9 0.00 0.00 0.00 95 1017.1
20260905062615 18 94 9.7 12.9 0.00 0.00 0.00 95 1017.0
20260905062459 18 101 8.0 14.5 0.00 0.00 0.00 95 1017.0
20260905062405 18 95 8.0 14.5 0.00 0.00 0.00 95 1017.0
20260905062313 18 85 8.0 14.5 0.00 0.00 0.00 95 1017.0
20260905062218 18 111 8.0 14.5 0.00 0.00 0.00 95 1016.9
20260905062143 18 92 6.4 14.5 0.00 0.00 0.00 95 1016.9
20260905062001 18 131 8.0 14.5 0.00 0.00 0.00 95 1016.9
20260905061905 18 114 8.0 14.5 0.00 0.00 0.00 95 1016.9
20260905061809 18 111 9.7 14.5 0.00 0.00 0.00 95 1016.9
20260905061658 18 110 11.3 14.5 0.00 0.00 0.00 95 1016.8
20260905061602 18 108 9.7 17.7 0.00 0.00 0.00 95 1016.9
20260905061507 18 116 8.0 17.7 0.00 0.00 0.00 95 1016.9
20260905061412 18 132 8.0 17.7 0.00 0.00 0.00 95 1016.9
20260905061337 18 92 9.7 17.7 0.00 0.00 0.00 95 1016.9
20260905061221 18 116 9.7 20.9 0.00 0.00 0.00 95 1016.9
20260905061058 18 108 11.3 20.9 0.00 0.00 0.00 95 1016.9
20260905061005 18 98 9.7 20.9 0.00 0.00 0.00 95 1016.9
20260905060910 18 97 8.0 20.9 0.00 0.00 0.00 95 1016.9
20260905060815 18 137 11.3 20.9 0.00 0.00 0.00 95 1016.9
20260905060741 18 98 12.9 20.9 0.00 0.00 0.00 95 1016.8
20260905060558 18 84 14.5 20.9 0.00 0.00 0.00 95 1016.8
20260905060503 18 101 14.5 20.9 0.00 0.00 0.00 95 1016.8
20260905060428 18 91 14.5 20.9 0.00 0.00 0.00 95 1016.8
20260905060316 18 100 12.9 19.3 0.00 0.00 0.00 95 1016.7
20260905060241 18 106 12.9 19.3 0.00 0.00 0.00 95 1016.8
20260905060058 18 100 12.9 19.3 0.00 0.00 0.00 95 1016.7
20260905060004 18 92 12.9 19.3 0.00 0.00 0.00 95 1016.8
20260905055908 18 82 12.9 19.3 0.00 0.00 0.00 95 1016.8
20260905055833 18 94 12.9 19.3 0.00 0.00 0.00 95 1016.7
20260905055700 18 93 12.9 19.3 0.00 0.00 0.00 95 1016.7
20260905055606 18 100 12.9 19.3 0.00 0.00 0.00 95 1016.7
20260905055510 18 87 12.9 17.7 0.00 0.00 0.00 95 1016.7
20260905055415 18 109 11.3 17.7 0.00 0.00 0.00 95 1016.7
20260905055259 18 81 11.3 16.1 0.00 0.00 0.00 95 1016.6
20260905055204 19 98 11.3 16.1 0.00 0.00 0.00 95 1016.6
20260905055128 18 101 9.7 16.1 0.00 0.00 0.00 95 1016.6
20260905055036 18 101 9.7 16.1 0.00 0.00 0.00 95 1016.7
20260905054859 18 79 11.3 16.1 0.00 0.00 0.00 95 1016.6
20260905054804 18 112 11.3 16.1 0.00 0.00 0.00 95 1016.6
20260905054709 18 104 11.3 16.1 0.00 0.00 0.00 95 1016.6
20260905054614 18 92 9.7 14.5 0.00 0.00 0.00 95 1016.6
20260905054459 18 82 9.7 16.1 0.00 0.00 0.00 95 1016.6
20260905054427 18 114 8.0 16.1 0.00 0.00 0.00 95 1016.6
20260905054311 18 114 8.0 16.1 0.00 0.00 0.00 95 1016.6
20260905054236 18 108 9.7 16.1 0.00 0.00 0.00 95 1016.5
20260905054059 18 105 9.7 16.1 0.00 0.00 0.00 95 1016.5
20260905054003 18 112 9.7 16.1 0.00 0.00 0.00 95 1016.5
20260905053928 18 113 9.7 16.1 0.00 0.00 0.00 95 1016.5
20260905053811 18 105 11.3 16.1 0.00 0.00 0.00 95 1016.5
20260905053701 18 111 11.3 16.1 0.00 0.00 0.00 95 1016.5
20260905053605 18 127 11.3 14.5 0.00 0.00 0.00 95 1016.5
20260905053510 18 111 9.7 16.1 0.00 0.00 0.00 95 1016.5
20260905053435 18 105 9.7 16.1 0.00 0.00 0.00 95 1016.6
20260905053319 18 98 9.7 16.1 0.00 0.00 0.00 95 1016.5
20260905053223 18 110 11.3 16.1 0.00 0.00 0.00 95 1016.5
20260905053100 18 111 9.7 16.1 0.00 0.00 0.00 95 1016.5
20260905053009 18 115 9.7 16.1 0.00 0.00 0.00 95 1016.5
20260905052914 18 108 12.9 16.1 0.00 0.00 0.00 95 1016.6
20260905052819 18 118 11.3 16.1 0.00 0.00 0.00 95 1016.5
20260905052656 18 112 8.0 14.5 0.00 0.00 0.00 95 1016.5
20260905052601 18 117 8.0 11.3 0.00 0.00 0.00 95 1016.5
20260905052526 18 121 8.0 11.3 0.00 0.00 0.00 95 1016.5
20260905052430 18 138 8.0 11.3 0.00 0.00 0.00 95 1016.5
20260905052258 18 101 8.0 12.9 0.00 0.00 0.00 95 1016.5
20260905052203 18 120 8.0 12.9 0.00 0.00 0.00 95 1016.5
20260905052128 18 107 6.4 12.9 0.00 0.00 0.00 95 1016.4
20260905052001 18 97 8.0 12.9 0.00 0.00 0.00 95 1016.5
20260905051856 18 125 8.0 12.9 0.00 0.00 0.00 95 1016.4
20260905051753 18 125 8.0 12.9 0.00 0.00 0.00 95 1016.4
20260905051600 18 103 8.0 12.9 0.00 0.00 0.00 95 1016.4
20260905051505 18 131 9.7 12.9 0.00 0.00 0.00 95 1016.4
20260905051414 18 101 8.0 12.9 0.00 0.00 0.00 95 1016.5
20260905051320 18 114 8.0 12.9 0.00 0.00 0.00 95 1016.4
20260905051158 18 103 8.0 12.9 0.00 0.00 0.00 95 1016.4
20260905051103 18 92 9.7 12.9 0.00 0.00 0.00 95 1016.5
20260905051008 18 87 9.7 12.9 0.00 0.00 0.00 94 1016.5
20260905050857 18 112 9.7 12.9 0.00 0.00 0.00 94 1016.5
20260905050821 18 69 8.0 12.9 0.00 0.00 0.00 94 1016.5
20260905050658 18 106 8.0 12.9 0.00 0.00 0.00 94 1016.4
20260905050623 18 94 8.0 12.9 0.00 0.00 0.00 94 1016.4
20260905050500 18 107 9.7 12.9 0.00 0.00 0.00 94 1016.4
20260905050405 18 90 9.7 12.9 0.00 0.00 0.00 94 1016.4
20260905050310 18 102 8.0 12.9 0.00 0.00 0.00 94 1016.4
20260905050218 18 95 8.0 12.9 0.00 0.00 0.00 94 1016.4
20260905050136 18 98 6.4 12.9 0.00 0.00 0.00 94 1016.4
20260905050020 18 98 6.4 11.3 0.00 0.00 0.00 94 1016.5
20260905045903 18 97 6.4 12.9 0.00 0.00 0.00 94 1016.4
20260905045828 18 98 8.0 12.9 0.00 0.00 0.00 94 1016.4
20260905045712 18 108 8.0 12.9 0.00 0.00 0.00 94 1016.4
20260905045617 18 102 4.8 12.9 0.00 0.00 0.00 94 1016.4
20260905045521 18 116 6.4 12.9 0.00 0.00 0.00 94 1016.5
20260905045408 18 103 6.4 12.9 0.00 0.00 0.00 94 1016.5
20260905045313 18 96 6.4 12.9 0.00 0.00 0.00 94 1016.5
20260905045218 18 101 8.0 12.9 0.00 0.00 0.00 94 1016.4
20260905045102 18 115 8.0 12.9 0.00 0.00 0.00 94 1016.5
20260905045027 18 97 6.4 12.9 0.00 0.00 0.00 94 1016.5
20260905044911 18 116 8.0 12.9 0.00 0.00 0.00 94 1016.5
20260905044800 18 109 6.4 12.9 0.00 0.00 0.00 94 1016.5
20260905044706 18 104 6.4 12.9 0.00 0.00 0.00 94 1016.5
20260905044610 18 124 8.0 12.9 0.00 0.00 0.00 94 1016.5
20260905044515 18 122 6.4 12.9 0.00 0.00 0.00 94 1016.4
20260905044400 18 117 6.4 12.9 0.00 0.00 0.00 94 1016.4
20260905044305 18 136 6.4 12.9 0.00 0.00 0.00 94 1016.4
20260905044230 18 128 6.4 12.9 0.00 0.00 0.00 94 1016.4
20260905044138 18 121 8.0 12.9 0.00 0.00 0.00 94 1016.5
20260905043956 18 119 6.4 12.9 0.00 0.00 0.00 94 1016.5
20260905043901 18 117 4.8 12.9 0.00 0.00 0.00 94 1016.5
20260905043806 18 117 6.4 12.9 0.00 0.00 0.00 94 1016.5
20260905043710 18 123 6.4 12.9 0.00 0.00 0.00 94 1016.5
20260905043635 18 130 6.4 12.9 0.00 0.00 0.00 93 1016.5
20260905043503 18 111 4.8 12.9 0.00 0.00 0.00 93 1016.5
20260905043409 18 119 4.8 12.9 0.00 0.00 0.00 93 1016.5
20260905043313 18 133 6.4 12.9 0.00 0.00 0.00 93 1016.5
20260905043158 18 133 6.4 12.9 0.00 0.00 0.00 93 1016.5
20260905043103 18 119 6.4 11.3 0.00 0.00 0.00 93 1016.4
20260905043008 18 136 6.4 11.3 0.00 0.00 0.00 93 1016.4
20260905042857 18 121 4.8 11.3 0.00 0.00 0.00 93 1016.6
20260905042822 18 114 4.8 11.3 0.00 0.00 0.00 93 1016.6
20260905042659 18 113 4.8 11.3 0.00 0.00 0.00 93 1016.5
20260905042622 18 112 4.8 11.3 0.00 0.00 0.00 93 1016.5
20260905042459 18 114 6.4 11.3 0.00 0.00 0.00 93 1016.5
20260905042404 18 101 6.4 11.3 0.00 0.00 0.00 92 1016.6
20260905042314 18 105 6.4 11.3 0.00 0.00 0.00 92 1016.6
20260905042238 18 78 6.4 11.3 0.00 0.00 0.00 92 1016.6
20260905042141 18 112 6.4 11.3 0.00 0.00 0.00 92 1016.6
20260905041958 18 127 8.0 11.3 0.00 0.00 0.00 92 1016.5
20260905041923 18 108 8.0 14.5 0.00 0.00 0.00 92 1016.5
20260905041806 18 107 8.0 14.5 0.00 0.00 0.00 92 1016.6
20260905041711 18 113 8.0 14.5 0.00 0.00 0.00 92 1016.6
20260905041600 18 136 8.0 14.5 0.00 0.00 0.00 92 1016.6
20260905041505 18 99 8.0 14.5 0.00 0.00 0.00 92 1016.6
20260905041411 18 100 8.0 14.5 0.00 0.00 0.00 92 1016.6
20260905041314 18 106 8.0 14.5 0.00 0.00 0.00 92 1016.6
20260905041220 18 103 8.0 14.5 0.00 0.00 0.00 92 1016.7
20260905041057 18 98 6.4 12.9 0.00 0.00 0.00 91 1016.7
20260905041006 18 102 8.0 12.9 0.00 0.00 0.00 91 1016.6
20260905040911 18 96 6.4 12.9 0.00 0.00 0.00 91 1016.6
20260905040756 18 103 4.8 12.9 0.00 0.00 0.00 91 1016.6
20260905040721 18 103 4.8 12.9 0.00 0.00 0.00 91 1016.6
20260905040559 18 113 6.4 12.9 0.00 0.00 0.00 91 1016.5
20260905040503 18 108 6.4 12.9 0.00 0.00 0.00 91 1016.5
20260905040428 18 114 6.4 12.9 0.00 0.00 0.00 91 1016.5
20260905040256 18 90 9.7 12.9 0.00 0.00 0.00 91 1016.5
20260905040201 18 99 9.7 12.9 0.00 0.00 0.00 91 1016.5
20260905040105 19 96 8.0 12.9 0.00 0.00 0.00 91 1016.5
20260905040030 18 103 8.0 12.9 0.00 0.00 0.00 91 1016.5
20260905035914 19 97 9.7 12.9 0.00 0.00 0.00 91 1016.5
20260905035818 19 94 8.0 12.9 0.00 0.00 0.00 91 1016.6
20260905035706 19 88 8.0 12.9 0.00 0.00 0.00 91 1016.5
20260905035611 19 90 8.0 12.9 0.00 0.00 0.00 91 1016.5
20260905035456 19 101 8.0 12.9 0.00 0.00 0.00 91 1016.5
20260905035421 19 113 8.0 12.9 0.00 0.00 0.00 91 1016.5
20260905035306 19 108 6.4 11.3 0.00 0.00 0.00 91 1016.5
20260905035228 19 113 6.4 9.7 0.00 0.00 0.00 91 1016.5
20260905035112 19 108 4.8 9.7 0.00 0.00 0.00 91 1016.5
20260905035001 19 123 3.2 6.4 0.00 0.00 0.00 91 1016.4
20260905034926 19 126 3.2 6.4 0.00 0.00 0.00 91 1016.4
20260905034810 19 126 1.6 6.4 0.00 0.00 0.00 91 1016.4
20260905034715 19 126 1.6 9.7 0.00 0.00 0.00 91 1016.3
20260905034619 19 126 1.6 11.3 0.00 0.00 0.00 91 1016.3
20260905034457 19 126 3.2 11.3 0.00 0.00 0.00 91 1016.4
20260905034422 19 126 3.2 11.3 0.00 0.00 0.00 91 1016.4
20260905034310 19 126 3.2 11.3 0.00 0.00 0.00 91 1016.4
20260905034215 19 126 3.2 12.9 0.00 0.00 0.00 91 1016.4
20260905034100 19 126 4.8 12.9 0.00 0.00 0.00 91 1016.4
20260905034025 19 124 4.8 12.9 0.00 0.00 0.00 91 1016.4
20260905033909 19 124 6.4 12.9 0.00 0.00 0.00 91 1016.4
20260905033814 19 123 6.4 12.9 0.00 0.00 0.00 91 1016.5
20260905033703 19 136 4.8 12.9 0.00 0.00 0.00 91 1016.5
20260905033608 19 136 4.8 12.9 0.00 0.00 0.00 90 1016.5
20260905033533 19 114 6.4 12.9 0.00 0.00 0.00 90 1016.4
20260905033357 19 107 8.0 12.9 0.00 0.00 0.00 90 1016.4
20260905033320 19 113 8.0 12.9 0.00 0.00 0.00 90 1016.5
20260905033204 19 127 8.0 12.9 0.00 0.00 0.00 90 1016.4
20260905033109 19 126 8.0 12.9 0.00 0.00 0.00 90 1016.4
20260905032957 19 119 8.0 12.9 0.00 0.00 0.00 90 1016.4
20260905032922 19 113 6.4 12.9 0.00 0.00 0.00 90 1016.4
20260905032806 19 113 8.0 12.9 0.00 0.00 0.00 90 1016.4
20260905032711 19 116 9.7 12.9 0.00 0.00 0.00 90 1016.4
20260905032556 20 109 8.0 12.9 0.00 0.00 0.00 90 1016.5
20260905032501 20 113 6.4 12.9 0.00 0.00 0.00 90 1016.4
20260905032409 20 111 6.4 12.9 0.00 0.00 0.00 89 1016.4
20260905032314 20 105 8.0 12.9 0.00 0.00 0.00 89 1016.5
20260905032219 20 117 8.0 12.9 0.00 0.00 0.00 89 1016.4
20260905032057 20 110 8.0 12.9 0.00 0.00 0.00 89 1016.4
20260905032001 20 112 8.0 12.9 0.00 0.00 0.00 89 1016.4
20260905031906 20 87 8.0 12.9 0.00 0.00 0.00 89 1016.4
20260905031815 20 102 8.0 12.9 0.00 0.00 0.00 89 1016.4
20260905031720 20 98 8.0 12.9 0.00 0.00 0.00 89 1016.4
20260905031557 20 92 8.0 12.9 0.00 0.00 0.00 89 1016.3
20260905031521 20 98 8.0 14.5 0.00 0.00 0.00 89 1016.3
20260905031359 20 117 6.4 14.5 0.00 0.00 0.00 89 1016.3
20260905031304 20 105 6.4 14.5 0.00 0.00 0.00 89 1016.3
20260905031228 20 110 6.4 14.5 0.00 0.00 0.00 89 1016.4
20260905031056 20 115 6.4 14.5 0.00 0.00 0.00 89 1016.4
20260905031022 20 125 6.4 14.5 0.00 0.00 0.00 89 1016.4
20260905030859 20 109 9.7 14.5 0.00 0.00 0.00 89 1016.3
20260905030804 20 113 9.7 14.5 0.00 0.00 0.00 88 1016.3
20260905030729 20 130 6.4 14.5 0.00 0.00 0.00 88 1016.3
20260905030632 20 117 4.8 14.5 0.00 0.00 0.00 88 1016.3
20260905030456 20 121 4.8 14.5 0.00 0.00 0.00 88 1016.3
20260905030405 20 122 6.4 14.5 0.00 0.00 0.00 88 1016.3
20260905030308 20 130 9.7 14.5 0.00 0.00 0.00 88 1016.3
20260905030213 20 111 8.0 17.7 0.00 0.00 0.00 88 1016.3
20260905030058 20 111 8.0 17.7 0.00 0.00 0.00 88 1016.4
20260905030004 20 103 9.7 17.7 0.00 0.00 0.00 88 1016.3
20260905025908 20 127 8.0 17.7 0.00 0.00 0.00 88 1016.3
20260905025757 20 137 8.0 17.7 0.00 0.00 0.00 88 1016.3
20260905025721 20 135 9.7 17.7 0.00 0.00 0.00 88 1016.3
20260905025600 20 102 8.0 17.7 0.00 0.00 0.00 88 1016.3
20260905025504 20 132 11.3 17.7 0.00 0.00 0.00 88 1016.2
20260905025429 20 137 9.7 17.7 0.00 0.00 0.00 88 1016.2
20260905025313 20 120 9.7 14.5 0.00 0.00 0.00 88 1016.2
20260905025222 20 117 9.7 14.5 0.00 0.00 0.00 88 1016.2
20260905025059 20 130 8.0 14.5 0.00 0.00 0.00 88 1016.2
20260905025003 20 107 8.0 14.5 0.00 0.00 0.00 88 1016.3
20260905024908 20 86 8.0 14.5 0.00 0.00 0.00 88 1016.2
20260905024831 20 109 8.0 14.5 0.00 0.00 0.00 88 1016.2
20260905024715 20 115 9.7 14.5 0.00 0.00 0.00 88 1016.2
20260905024620 20 107 9.7 12.9 0.00 0.00 0.00 88 1016.2
20260905024528 20 128 8.0 16.1 0.00 0.00 0.00 87 1016.2
20260905024412 21 138 8.0 16.1 0.00 0.00 0.00 88 1016.2
20260905024314 21 116 8.0 16.1 0.00 0.00 0.00 88 1016.2
20260905024219 21 116 9.7 16.1 0.00 0.00 0.00 88 1016.3
20260905024057 21 98 8.0 16.1 0.00 0.00 0.00 88 1016.2
20260905024022 21 125 8.0 16.1 0.00 0.00 0.00 88 1016.2
20260905023906 21 111 8.0 16.1 0.00 0.00 0.00 88 1016.2
20260905023830 21 115 11.3 16.1 0.00 0.00 0.00 88 1016.2
20260905023718 21 114 11.3 16.1 0.00 0.00 0.00 88 1016.2
20260905023603 21 130 9.7 16.1 0.00 0.00 0.00 87 1016.1
20260905023507 21 127 9.7 16.1 0.00 0.00 0.00 87 1016.2
20260905023411 21 115 9.7 16.1 0.00 0.00 0.00 87 1016.2
20260905023336 21 113 9.7 14.5 0.00 0.00 0.00 87 1016.2
20260905023220 21 121 9.7 14.5 0.00 0.00 0.00 87 1016.2
20260905023104 21 118 9.7 14.5 0.00 0.00 0.00 87 1016.1
20260905023013 21 107 9.7 14.5 0.00 0.00 0.00 87 1016.1
20260905022917 21 110 8.0 14.5 0.00 0.00 0.00 87 1016.1
20260905022842 21 116 9.7 16.1 0.00 0.00 0.00 87 1016.0
20260905022659 21 110 9.7 16.1 0.00 0.00 0.00 87 1016.0
20260905022603 21 95 8.0 16.1 0.00 0.00 0.00 87 1016.0
20260905022508 21 116 9.7 16.1 0.00 0.00 0.00 86 1016.0
20260905022357 21 113 9.7 16.1 0.00 0.00 0.00 86 1016.0
20260905022321 21 115 9.7 16.1 0.00 0.00 0.00 86 1016.0
20260905022159 21 117 9.7 16.1 0.00 0.00 0.00 86 1016.0
20260905022104 21 105 9.7 16.1 0.00 0.00 0.00 86 1016.0
20260905022009 21 119 9.7 16.1 0.00 0.00 0.00 86 1016.0
20260905021933 21 108 9.7 14.5 0.00 0.00 0.00 86 1016.0
20260905021802 21 112 9.7 12.9 0.00 0.00 0.00 86 1016.0
20260905021705 21 108 9.7 17.7 0.00 0.00 0.00 86 1016.0
20260905021630 21 109 9.7 17.7 0.00 0.00 0.00 86 1016.0
20260905021514 21 113 8.0 17.7 0.00 0.00 0.00 86 1016.0
20260905021358 21 122 8.0 17.7 0.00 0.00 0.00 86 1016.0
20260905021322 21 134 9.7 17.7 0.00 0.00 0.00 85 1016.0
20260905021159 21 105 9.7 17.7 0.00 0.00 0.00 86 1016.0
20260905021107 21 119 9.7 17.7 0.00 0.00 0.00 85 1016.0
20260905021012 21 117 11.3 19.3 0.00 0.00 0.00 85 1016.0
20260905020915 21 117 11.3 19.3 0.00 0.00 0.00 85 1015.9
20260905020819 21 102 9.7 19.3 0.00 0.00 0.00 85 1016.0
20260905020657 21 137 9.7 19.3 0.00 0.00 0.00 85 1015.9
20260905020602 21 111 11.3 19.3 0.00 0.00 0.00 85 1015.9
20260905020531 21 110 12.9 19.3 0.00 0.00 0.00 85 1015.9
20260905020415 21 115 11.3 19.3 0.00 0.00 0.00 85 1015.9
20260905020320 21 108 12.9 19.3 0.00 0.00 0.00 85 1015.9
20260905020158 21 119 14.5 19.3 0.00 0.00 0.00 85 1015.9
20260905020007 22 109 11.3 16.1 0.00 0.00 0.00 85 1015.9
20260905015915 22 114 12.9 16.1 0.00 0.00 0.00 85 1015.9
20260905015800 22 135 11.3 14.5 0.00 0.00 0.00 85 1015.8
20260905015725 22 102 11.3 17.7 0.00 0.00 0.00 84 1015.8
20260905015609 22 113 9.7 17.7 0.00 0.00 0.00 84 1015.8
20260905015514 22 116 9.7 17.7 0.00 0.00 0.00 84 1015.8
20260905015400 22 117 9.7 17.7 0.00 0.00 0.00 84 1015.8
20260905015308 22 96 8.0 17.7 0.00 0.00 0.00 84 1015.8
20260905015213 22 115 8.0 17.7 0.00 0.00 0.00 84 1015.8
20260905015118 22 114 8.0 17.7 0.00 0.00 0.00 84 1015.8
20260905015022 22 115 11.3 17.7 0.00 0.00 0.00 84 1015.7
20260905014906 22 123 12.9 17.7 0.00 0.00 0.00 84 1015.7
20260905014811 22 115 12.9 17.7 0.00 0.00 0.00 84 1015.7
20260905014736 22 123 12.9 17.7 0.00 0.00 0.00 84 1015.8
20260905014604 22 122 12.9 19.3 0.00 0.00 0.00 84 1015.7
20260905014509 22 117 12.9 20.9 0.00 0.00 0.00 84 1015.7
20260905014430 22 105 12.9 20.9 0.00 0.00 0.00 84 1015.6
20260905014314 22 107 12.9 20.9 0.00 0.00 0.00 84 1015.7
20260905014220 22 144 14.5 20.9 0.00 0.00 0.00 84 1015.6
20260905014057 22 108 12.9 20.9 0.00 0.00 0.00 84 1015.6
20260905014002 22 125 12.9 20.9 0.00 0.00 0.00 84 1015.6
20260905013910 22 117 12.9 20.9 0.00 0.00 0.00 84 1015.6
20260905013815 22 103 14.5 20.9 0.00 0.00 0.00 84 1015.6
20260905013700 22 100 12.9 20.9 0.00 0.00 0.00 83 1015.6
20260905013625 22 102 9.7 14.5 0.00 0.00 0.00 83 1015.6
20260905013508 22 114 9.7 14.5 0.00 0.00 0.00 83 1015.5
20260905013432 22 90 9.7 16.1 0.00 0.00 0.00 83 1015.5
20260905013300 22 80 8.0 17.7 0.00 0.00 0.00 83 1015.5
20260905013205 22 90 9.7 17.7 0.00 0.00 0.00 83 1015.4
20260905013108 22 92 9.7 17.7 0.00 0.00 0.00 83 1015.4
20260905013014 22 96 9.7 17.7 0.00 0.00 0.00 83 1015.4
20260905012858 22 94 9.7 17.7 0.00 0.00 0.00 83 1015.4
20260905012803 22 113 9.7 17.7 0.00 0.00 0.00 83 1015.4
20260905012710 22 84 11.3 17.7 0.00 0.00 0.00 83 1015.4
20260905012615 22 121 12.9 17.7 0.00 0.00 0.00 82 1015.4
20260905012521 22 96 12.9 17.7 0.00 0.00 0.00 82 1015.4
20260905012358 23 107 11.3 16.1 0.00 0.00 0.00 82 1015.4
20260905012323 23 116 9.7 16.1 0.00 0.00 0.00 82 1015.3
20260905012207 23 108 11.3 16.1 0.00 0.00 0.00 82 1015.4
20260905012132 23 111 11.3 16.1 0.00 0.00 0.00 82 1015.4
20260905012000 23 110 11.3 16.1 0.00 0.00 0.00 82 1015.3
20260905011905 23 103 11.3 16.1 0.00 0.00 0.00 82 1015.3
20260905011811 23 79 8.0 16.1 0.00 0.00 0.00 82 1015.3
20260905011735 23 91 6.4 12.9 0.00 0.00 0.00 82 1015.3
20260905011558 23 84 6.4 12.9 0.00 0.00 0.00 82 1015.2
20260905011503 23 105 6.4 14.5 0.00 0.00 0.00 81 1015.2
20260905011411 23 78 8.0 14.5 0.00 0.00 0.00 81 1015.2
20260905011316 23 104 8.0 14.5 0.00 0.00 0.00 81 1015.2
20260905011241 23 97 8.0 14.5 0.00 0.00 0.00 81 1015.1
20260905011057 23 82 8.0 14.5 0.00 0.00 0.00 80 1015.1
20260905011002 23 97 8.0 16.1 0.00 0.00 0.00 80 1015.1
20260905010905 23 107 8.0 16.1 0.00 0.00 0.00 80 1015.1
20260905010810 23 116 9.7 16.1 0.00 0.00 0.00 80 1015.1
20260905010719 23 98 9.7 16.1 0.00 0.00 0.00 80 1015.1
20260905010623 23 107 8.0 16.1 0.00 0.00 0.00 80 1015.0
20260905010526 23 105 9.7 17.7 0.00 0.00 0.00 80 1015.0
20260905010410 23 108 9.7 19.3 0.00 0.00 0.00 80 1015.0
20260905010335 23 106 11.3 19.3 0.00 0.00 0.00 80 1015.0
20260905010218 23 117 11.3 19.3 0.00 0.00 0.00 80 1015.0
20260905010143 23 112 11.3 19.3 0.00 0.00 0.00 80 1015.0
20260905005959 23 116 11.3 19.3 0.00 0.00 0.00 79 1014.9
20260905005905 23 117 11.3 19.3 0.00 0.00 0.00 80 1015.0
20260905005809 23 113 11.3 19.3 0.00 0.00 0.00 80 1015.0
20260905005714 23 113 12.9 19.3 0.00 0.00 0.00 80 1014.9
20260905005619 23 103 11.3 19.3 0.00 0.00 0.00 79 1014.9
20260905005522 24 103 11.3 19.3 0.00 0.00 0.00 79 1014.9
20260905005406 24 121 12.9 19.3 0.00 0.00 0.00 79 1014.9
20260905005311 24 77 12.9 17.7 0.00 0.00 0.00 79 1014.9
20260905005200 24 111 11.3 16.1 0.00 0.00 0.00 79 1014.9
20260905005105 24 98 9.7 16.1 0.00 0.00 0.00 79 1015.0
20260905005010 24 98 9.7 16.1 0.00 0.00 0.00 79 1015.0
20260905004914 24 103 9.7 16.1 0.00 0.00 0.00 79 1014.9
20260905004819 24 84 9.7 16.1 0.00 0.00 0.00 79 1014.9
20260905004703 24 119 9.7 16.1 0.00 0.00 0.00 79 1014.9
20260905004612 24 91 9.7 16.1 0.00 0.00 0.00 79 1014.9
20260905004456 24 100 11.3 16.1 0.00 0.00 0.00 79 1014.9
20260905004401 25 94 9.7 17.7 0.00 0.00 0.00 79 1014.9
20260905004305 25 103 8.0 20.9 0.00 0.00 0.00 78 1014.8
20260905004210 25 95 9.7 20.9 0.00 0.00 0.00 78 1014.8
20260905004115 25 91 9.7 20.9 0.00 0.00 0.00 78 1014.8
20260905004004 25 91 9.7 20.9 0.00 0.00 0.00 78 1014.9
20260905003909 25 110 9.7 20.9 0.00 0.00 0.00 77 1014.9
20260905003814 25 111 11.3 20.9 0.00 0.00 0.00 77 1014.9
20260905003658 25 94 12.9 20.9 0.00 0.00 0.00 77 1014.9
20260905003603 25 103 14.5 20.9 0.00 0.00 0.00 77 1014.9
20260905003508 25 111 12.9 20.9 0.00 0.00 0.00 77 1014.9
20260905003357 25 88 11.3 17.7 0.00 0.00 0.00 77 1014.8
20260905003302 25 87 11.3 17.7 0.00 0.00 0.00 77 1014.9
20260905003206 25 66 11.3 17.7 0.00 0.00 0.00 77 1014.9
20260905003110 25 90 11.3 17.7 0.00 0.00 0.00 77 1014.9
20260905003015 25 98 12.9 17.7 0.00 0.00 0.00 77 1014.8
20260905002900 25 107 12.9 17.7 0.00 0.00 0.00 77 1014.8
20260905002829 25 105 11.3 17.7 0.00 0.00 0.00 77 1014.8
20260905002712 25 101 11.3 17.7 0.00 0.00 0.00 77 1014.8
20260905002556 25 108 11.3 17.7 0.00 0.00 0.00 77 1014.8
20260905002501 25 96 11.3 17.7 0.00 0.00 0.00 77 1014.7
20260905002406 25 95 11.3 17.7 0.00 0.00 0.00 77 1014.7
20260905002310 25 93 11.3 19.3 0.00 0.00 0.00 77 1014.7
20260905002219 26 91 11.3 19.3 0.00 0.00 0.00 77 1014.7
20260905002057 26 93 11.3 19.3 0.00 0.00 0.00 77 1014.6
20260905002022 26 93 12.9 19.3 0.00 0.00 0.00 76 1014.6
20260905001858 26 94 14.5 19.3 0.00 0.00 0.00 76 1014.6
20260905001803 26 94 14.5 19.3 0.00 0.00 0.00 76 1014.6
20260905001707 26 88 12.9 19.3 0.00 0.00 0.00 76 1014.5
20260905001614 26 100 12.9 19.3 0.00 0.00 0.00 76 1014.5
20260905001519 26 101 12.9 19.3 0.00 0.00 0.00 76 1014.5
20260905001357 26 87 12.9 19.3 0.00 0.00 0.00 76 1014.5
20260905001322 26 116 14.5 19.3 0.00 0.00 0.00 75 1014.5
20260905001205 26 87 12.9 19.3 0.00 0.00 0.00 76 1014.5
20260905001130 26 101 9.7 19.3 0.00 0.00 0.00 76 1014.5
20260905001014 26 80 11.3 19.3 0.00 0.00 0.00 75 1014.5
20260905000902 26 92 12.9 19.3 0.00 0.00 0.00 75 1014.5
20260905000808 26 101 11.3 19.3 0.00 0.00 0.00 75 1014.4
20260905000711 26 91 11.3 19.3 0.00 0.00 0.00 75 1014.4
20260905000556 26 86 14.5 19.3 0.00 0.00 0.00 75 1014.4
20260905000501 26 90 14.5 19.3 0.00 0.00 0.00 75 1014.4
20260905000406 26 92 14.5 19.3 0.00 0.00 0.00 75 1014.4
20260905000315 27 98 14.5 19.3 0.00 0.00 0.00 74 1014.4
20260905000219 27 105 11.3 19.3 0.00 0.00 0.00 75 1014.4
20260905000057 27 98 9.7 16.1 0.00 0.00 0.00 74 1014.4
20260905000002 27 104 8.0 16.1 0.00 0.00 0.00 74 1014.4
20260904235907 27 96 6.4 16.1 0.00 0.00 0.00 74 1014.4
20260904235811 27 117 8.0 16.1 0.00 0.00 0.00 74 1014.4
20260904235740 27 92 9.7 17.7 0.00 0.00 0.00 74 1014.3
20260904235557 27 103 9.7 17.7 0.00 0.00 0.00 73 1014.3
20260904235502 27 109 11.3 17.7 0.00 0.00 0.00 73 1014.3
20260904235427 27 114 11.3 17.7 0.00 0.00 0.00 73 1014.3
20260904235311 27 102 9.7 17.7 0.00 0.00 0.00 73 1014.3
20260904235236 27 101 9.7 17.7 0.00 0.00 0.00 73 1014.3
20260904235121 27 109 11.3 17.7 0.00 0.00 0.00 73 1014.3
20260904235025 27 96 12.9 17.7 0.00 0.00 0.00 73 1014.3
20260904234913 27 85 11.3 17.7 0.00 0.00 0.00 73 1014.3
20260904234818 27 98 9.7 14.5 0.00 0.00 0.00 73 1014.2
20260904234702 27 127 11.3 14.5 0.00 0.00 0.00 73 1014.3
20260904234606 27 101 11.3 16.1 0.00 0.00 0.00 73 1014.3
20260904234510 27 100 11.3 16.1 0.00 0.00 0.00 73 1014.3
20260904234415 27 92 9.7 17.7 0.00 0.00 0.00 73 1014.2
20260904234304 27 105 11.3 17.7 0.00 0.00 0.00 72 1014.3
20260904234209 27 126 11.3 17.7 0.00 0.00 0.00 73 1014.3
20260904234112 27 80 11.3 17.7 0.00 0.00 0.00 73 1014.3
20260904233956 27 93 11.3 17.7 0.00 0.00 0.00 72 1014.3
20260904233901 27 95 12.9 17.7 0.00 0.00 0.00 72 1014.3
20260904233806 27 125 12.9 17.7 0.00 0.00 0.00 72 1014.3
20260904233715 27 117 14.5 17.7 0.00 0.00 0.00 72 1014.3
20260904233600 27 117 12.9 19.3 0.00 0.00 0.00 72 1014.3
20260904233524 27 112 9.7 19.3 0.00 0.00 0.00 72 1014.3
20260904233408 27 122 9.7 20.9 0.00 0.00 0.00 72 1014.3
20260904233313 27 101 11.3 20.9 0.00 0.00 0.00 72 1014.4
20260904233157 27 111 11.3 20.9 0.00 0.00 0.00 72 1014.3
20260904233105 27 109 12.9 20.9 0.00 0.00 0.00 72 1014.4
20260904233010 27 92 14.5 20.9 0.00 0.00 0.00 72 1014.4
20260904232935 27 86 14.5 20.9 0.00 0.00 0.00 72 1014.3
20260904232819 27 86 12.9 20.9 0.00 0.00 0.00 72 1014.3
20260904232656 27 72 14.5 20.9 0.00 0.00 0.00 72 1014.3
20260904232621 27 107 14.5 20.9 0.00 0.00 0.00 72 1014.2
20260904232505 27 80 12.9 19.3 0.00 0.00 0.00 72 1014.2
20260904232414 27 90 14.5 19.3 0.00 0.00 0.00 72 1014.2
20260904232259 27 82 16.1 19.3 0.00 0.00 0.00 71 1014.2
20260904232204 27 109 14.5 19.3 0.00 0.00 0.00 72 1014.1
20260904232109 27 88 12.9 19.3 0.00 0.00 0.00 72 1014.1
20260904232034 27 103 12.9 19.3 0.00 0.00 0.00 71 1014.2
20260904231858 27 92 14.5 19.3 0.00 0.00 0.00 71 1014.2
20260904231807 27 88 14.5 19.3 0.00 0.00 0.00 71 1014.3
20260904231711 27 84 12.9 19.3 0.00 0.00 0.00 71 1014.3
20260904231615 28 112 14.5 19.3 0.00 0.00 0.00 71 1014.3
20260904231500 28 89 16.1 19.3 0.00 0.00 0.00 71 1014.2
20260904231425 28 91 14.5 19.3 0.00 0.00 0.00 71 1014.2
20260904231309 28 93 12.9 19.3 0.00 0.00 0.00 71 1014.2
20260904231158 28 95 12.9 19.3 0.00 0.00 0.00 71 1014.3
20260904231103 28 71 14.5 19.3 0.00 0.00 0.00 71 1014.2
20260904231008 28 96 12.9 19.3 0.00 0.00 0.00 71 1014.2
20260904230913 28 94 11.3 19.3 0.00 0.00 0.00 71 1014.2
20260904230758 28 78 12.9 19.3 0.00 0.00 0.00 71 1014.2
20260904230703 28 42 14.5 19.3 0.00 0.00 0.00 71 1014.2
20260904230612 28 96 14.5 19.3 0.00 0.00 0.00 71 1014.2
20260904230517 28 84 14.5 20.9 0.00 0.00 0.00 70 1014.1
20260904230421 28 90 16.1 20.9 0.00 0.00 0.00 71 1014.1
20260904230305 28 92 16.1 20.9 0.00 0.00 0.00 70 1014.1
20260904230230 28 90 12.9 20.9 0.00 0.00 0.00 71 1014.1
20260904230112 28 90 11.3 20.9 0.00 0.00 0.00 71 1014.1
20260904230018 28 82 11.3 20.9 0.00 0.00 0.00 71 1014.2
20260904225901 28 88 12.9 20.9 0.00 0.00 0.00 71 1014.2
20260904225810 28 111 14.5 20.9 0.00 0.00 0.00 71 1014.2
20260904225715 28 94 12.9 20.9 0.00 0.00 0.00 70 1014.2
20260904225600 28 115 12.9 19.3 0.00 0.00 0.00 70 1014.2
20260904225505 28 121 12.9 19.3 0.00 0.00 0.00 71 1014.2
20260904225410 28 84 12.9 19.3 0.00 0.00 0.00 70 1014.2
20260904225300 28 94 12.9 19.3 0.00 0.00 0.00 70 1014.3
20260904225204 28 103 12.9 19.3 0.00 0.00 0.00 70 1014.2
20260904225109 28 117 12.9 19.3 0.00 0.00 0.00 70 1014.2
20260904225014 28 86 12.9 19.3 0.00 0.00 0.00 70 1014.3
20260904224919 28 84 12.9 19.3 0.00 0.00 0.00 70 1014.2
20260904224802 28 99 14.5 19.3 0.00 0.00 0.00 70 1014.2
20260904224708 28 90 12.9 19.3 0.00 0.00 0.00 70 1014.1
20260904224615 28 91 11.3 19.3 0.00 0.00 0.00 70 1014.1
20260904224500 28 92 12.9 19.3 0.00 0.00 0.00 70 1014.2
20260904224425 28 101 12.9 19.3 0.00 0.00 0.00 70 1014.2
20260904224308 28 96 11.3 19.3 0.00 0.00 0.00 70 1014.2
20260904224213 28 98 11.3 19.3 0.00 0.00 0.00 70 1014.2
20260904224058 28 117 11.3 19.3 0.00 0.00 0.00 70 1014.3
20260904224007 28 95 11.3 19.3 0.00 0.00 0.00 70 1014.2
20260904223911 28 119 14.5 19.3 0.00 0.00 0.00 70 1014.2
20260904223835 28 104 14.5 19.3 0.00 0.00 0.00 70 1014.3
20260904223719 28 115 9.7 17.7 0.00 0.00 0.00 70 1014.2
20260904223602 28 123 9.7 17.7 0.00 0.00 0.00 70 1014.1
20260904223507 28 113 12.9 17.7 0.00 0.00 0.00 70 1014.1
20260904223412 28 103 12.9 17.7 0.00 0.00 0.00 70 1014.1
20260904223300 28 81 12.9 17.7 0.00 0.00 0.00 70 1014.1
20260904223225 28 76 14.5 17.7 0.00 0.00 0.00 70 1014.1
20260904223109 28 94 11.3 19.3 0.00 0.00 0.00 70 1014.1
20260904223034 28 65 11.3 19.3 0.00 0.00 0.00 69 1014.1
20260904222857 28 108 12.9 19.3 0.00 0.00 0.00 70 1014.0
20260904222802 28 87 11.3 19.3 0.00 0.00 0.00 70 1014.0
20260904222707 28 92 11.3 19.3 0.00 0.00 0.00 70 1014.1
20260904222557 28 107 11.3 19.3 0.00 0.00 0.00 70 1014.0
20260904222500 28 113 11.3 19.3 0.00 0.00 0.00 70 1014.0
20260904222425 28 91 12.9 19.3 0.00 0.00 0.00 70 1013.9
20260904222309 28 104 16.1 19.3 0.00 0.00 0.00 70 1013.9
20260904222234 28 115 14.5 19.3 0.00 0.00 0.00 70 1014.0
20260904222058 28 129 11.3 17.7 0.00 0.00 0.00 70 1014.0
20260904222006 28 119 9.7 17.7 0.00 0.00 0.00 70 1014.0
20260904221910 28 101 8.0 17.7 0.00 0.00 0.00 70 1014.0
20260904221815 28 135 8.0 17.7 0.00 0.00 0.00 71 1014.0
20260904221700 28 117 9.7 17.7 0.00 0.00 0.00 70 1013.9
20260904221625 28 132 12.9 17.7 0.00 0.00 0.00 70 1013.9
20260904221529 28 92 12.9 17.7 0.00 0.00 0.00 71 1013.9
20260904221413 28 97 11.3 20.9 0.00 0.00 0.00 71 1013.9
20260904221302 28 84 9.7 20.9 0.00 0.00 0.00 71 1013.8
20260904221206 28 105 9.7 20.9 0.00 0.00 0.00 71 1013.8
20260904221130 28 99 9.7 20.9 0.00 0.00 0.00 71 1013.8
20260904221014 28 126 11.3 20.9 0.00 0.00 0.00 71 1013.8
20260904220859 28 103 14.5 20.9 0.00 0.00 0.00 71 1013.8
20260904220803 28 114 11.3 20.9 0.00 0.00 0.00 71 1013.8
20260904220708 28 106 11.3 20.9 0.00 0.00 0.00 71 1013.8
20260904220557 28 99 14.5 20.9 0.00 0.00 0.00 71 1013.8
20260904220501 28 119 11.3 17.7 0.00 0.00 0.00 71 1013.7
20260904220425 28 103 8.0 17.7 0.00 0.00 0.00 71 1013.7
20260904220329 28 127 8.0 17.7 0.00 0.00 0.00 70 1013.7
20260904220232 28 107 11.3 17.7 0.00 0.00 0.00 71 1013.7
20260904220056 28 109 8.0 17.7 0.00 0.00 0.00 71 1013.7
20260904220001 28 114 9.7 17.7 0.00 0.00 0.00 71 1013.7
20260904215910 28 87 11.3 17.7 0.00 0.00 0.00 71 1013.7
20260904215815 28 111 9.7 17.7 0.00 0.00 0.00 71 1013.8
20260904215700 28 139 9.7 17.7 0.00 0.00 0.00 71 1013.7
20260904215605 28 113 11.3 17.7 0.00 0.00 0.00 71 1013.7
20260904215510 28 107 12.9 17.7 0.00 0.00 0.00 71 1013.7
20260904215434 28 121 12.9 17.7 0.00 0.00 0.00 71 1013.7
20260904215305 28 106 11.3 17.7 0.00 0.00 0.00 71 1013.6
20260904215206 28 92 8.0 17.7 0.00 0.00 0.00 72 1013.6
20260904215131 28 51 8.0 17.7 0.00 0.00 0.00 72 1013.6
20260904215015 28 53 8.0 17.7 0.00 0.00 0.00 72 1013.6
20260904214900 28 90 9.7 17.7 0.00 0.00 0.00 71 1013.6
20260904214805 28 83 11.3 17.7 0.00 0.00 0.00 71 1013.7
20260904214710 28 86 11.3 17.7 0.00 0.00 0.00 72 1013.7
20260904214616 28 95 9.7 17.7 0.00 0.00 0.00 71 1013.7
20260904214520 28 107 8.0 17.7 0.00 0.00 0.00 72 1013.7
20260904214424 28 105 11.3 17.7 0.00 0.00 0.00 71 1013.6
20260904214308 28 86 12.9 17.7 0.00 0.00 0.00 71 1013.6
20260904214213 28 96 12.9 17.7 0.00 0.00 0.00 71 1013.6
20260904214118 28 98 11.3 17.7 0.00 0.00 0.00 71 1013.7
20260904214022 28 86 8.0 17.7 0.00 0.00 0.00 71 1013.7
20260904213910 28 109 8.0 17.7 0.00 0.00 0.00 71 1013.7
20260904213815 28 115 9.7 17.7 0.00 0.00 0.00 71 1013.7
20260904213720 28 121 11.3 17.7 0.00 0.00 0.00 71 1013.6
20260904213604 28 98 12.9 17.7 0.00 0.00 0.00 71 1013.6
20260904213509 28 94 11.3 16.1 0.00 0.00 0.00 71 1013.6
20260904213414 28 103 9.7 16.1 0.00 0.00 0.00 71 1013.6
20260904213303 28 88 11.3 16.1 0.00 0.00 0.00 71 1013.6
20260904213206 28 98 11.3 16.1 0.00 0.00 0.00 71 1013.7
20260904213111 28 121 9.7 16.1 0.00 0.00 0.00 70 1013.7
20260904213035 28 117 11.3 16.1 0.00 0.00 0.00 71 1013.6
20260904212859 28 153 11.3 16.1 0.00 0.00 0.00 71 1013.7
20260904212804 28 99 11.3 16.1 0.00 0.00 0.00 71 1013.7
20260904212728 28 105 11.3 14.5 0.00 0.00 0.00 71 1013.6
20260904212632 28 115 9.7 14.5 0.00 0.00 0.00 71 1013.6
20260904212520 28 104 9.7 17.7 0.00 0.00 0.00 71 1013.6
20260904212404 28 95 8.0 17.7 0.00 0.00 0.00 71 1013.7
20260904212329 28 130 8.0 17.7 0.00 0.00 0.00 70 1013.7
20260904212213 28 115 8.0 17.7 0.00 0.00 0.00 71 1013.7
20260904212058 28 120 6.4 17.7 0.00 0.00 0.00 71 1013.7
20260904212002 28 118 8.0 17.7 0.00 0.00 0.00 71 1013.8
20260904211906 28 136 9.7 17.7 0.00 0.00 0.00 71 1013.8
20260904211814 28 130 11.3 17.7 0.00 0.00 0.00 71 1013.8
20260904211659 28 111 9.7 17.7 0.00 0.00 0.00 71 1013.8
20260904211603 28 113 8.0 16.1 0.00 0.00 0.00 72 1013.8
20260904211506 28 85 8.0 17.7 0.00 0.00 0.00 71 1013.8
20260904211411 28 120 9.7 17.7 0.00 0.00 0.00 71 1013.8
20260904211259 28 107 9.7 17.7 0.00 0.00 0.00 71 1013.8
20260904211204 28 83 8.0 17.7 0.00 0.00 0.00 71 1013.8
20260904211127 28 91 9.7 17.7 0.00 0.00 0.00 71 1013.8
20260904211011 28 91 11.3 17.7 0.00 0.00 0.00 71 1013.8
20260904210915 28 109 11.3 17.7 0.00 0.00 0.00 71 1013.8
20260904210800 28 105 12.9 17.7 0.00 0.00 0.00 71 1013.8
20260904210705 28 105 12.9 17.7 0.00 0.00 0.00 71 1013.7
20260904210634 28 57 11.3 17.7 0.00 0.00 0.00 71 1013.7
20260904210457 28 84 8.0 17.7 0.00 0.00 0.00 71 1013.8
20260904210421 28 84 8.0 17.7 0.00 0.00 0.00 72 1013.8
20260904210258 28 115 8.0 17.7 0.00 0.00 0.00 72 1013.8
20260904210203 28 96 9.7 17.7 0.00 0.00 0.00 71 1013.8
20260904210107 28 72 9.7 19.3 0.00 0.00 0.00 72 1013.9
20260904210015 28 115 8.0 19.3 0.00 0.00 0.00 72 1013.9
20260904205900 28 79 11.3 19.3 0.00 0.00 0.00 71 1013.8
20260904205805 28 84 11.3 19.3 0.00 0.00 0.00 71 1013.8
20260904205710 28 109 9.7 19.3 0.00 0.00 0.00 72 1013.8
20260904205615 28 79 9.7 19.3 0.00 0.00 0.00 72 1013.8
20260904205500 28 87 9.7 19.3 0.00 0.00 0.00 72 1013.8
20260904205407 28 100 12.9 22.5 0.00 0.00 0.00 71 1013.8
20260904205332 28 105 12.9 22.5 0.00 0.00 0.00 71 1013.8
20260904205215 28 115 11.3 22.5 0.00 0.00 0.00 72 1013.8
20260904205101 28 92 11.3 22.5 0.00 0.00 0.00 71 1013.9
20260904205005 28 116 9.7 22.5 0.00 0.00 0.00 71 1013.9
20260904204930 28 117 9.7 22.5 0.00 0.00 0.00 71 1013.9
20260904204758 28 163 12.9 22.5 0.00 0.00 0.00 70 1013.9
20260904204723 28 119 12.9 22.5 0.00 0.00 0.00 71 1013.8
20260904204626 28 107 12.9 22.5 0.00 0.00 0.00 72 1013.8
20260904204510 28 135 12.9 22.5 0.00 0.00 0.00 72 1013.8
20260904204415 28 110 16.1 22.5 0.00 0.00 0.00 72 1013.8
20260904204300 28 105 14.5 22.5 0.00 0.00 0.00 72 1013.7
20260904204224 28 105 12.9 22.5 0.00 0.00 0.00 72 1013.8
20260904204108 28 84 14.5 22.5 0.00 0.00 0.00 72 1013.7
20260904203956 28 90 14.5 22.5 0.00 0.00 0.00 72 1013.7
20260904203901 28 85 12.9 22.5 0.00 0.00 0.00 72 1013.7
20260904203805 28 69 12.9 22.5 0.00 0.00 0.00 73 1013.7
20260904203710 28 86 12.9 22.5 0.00 0.00 0.00 73 1013.7
20260904203614 28 119 12.9 22.5 0.00 0.00 0.00 74 1013.7
20260904203503 28 94 11.3 22.5 0.00 0.00 0.00 74 1013.7
20260904203408 28 90 12.9 22.5 0.00 0.00 0.00 74 1013.7
20260904203313 28 91 14.5 22.5 0.00 0.00 0.00 74 1013.8
20260904203158 27 105 11.3 22.5 0.00 0.00 0.00 75 1013.8
20260904203123 27 87 8.0 14.5 0.00 0.00 0.00 75 1013.7
20260904203028 27 157 9.7 17.7 0.00 0.00 0.00 75 1013.7
20260904202911 28 140 11.3 17.7 0.00 0.00 0.00 75 1013.7
20260904202759 28 92 11.3 17.7 0.00 0.00 0.00 75 1013.7
20260904202724 28 116 9.7 17.7 0.00 0.00 0.00 75 1013.7
20260904202608 27 117 9.7 17.7 0.00 0.00 0.00 74 1013.7
20260904202533 27 113 9.7 17.7 0.00 0.00 0.00 75 1013.7
20260904202417 28 123 9.7 17.7 0.00 0.00 0.00 76 1013.7
20260904202300 27 84 11.3 17.7 0.00 0.00 0.00 75 1013.6
20260904202204 27 80 14.5 17.7 0.00 0.00 0.00 75 1013.7
20260904202108 27 89 12.9 17.7 0.00 0.00 0.00 74 1013.6
20260904202016 27 109 12.9 17.7 0.00 0.00 0.00 74 1013.6
20260904201939 27 98 12.9 17.7 0.00 0.00 0.00 75 1013.7
20260904201756 27 117 6.4 17.7 0.00 0.00 0.00 76 1013.7
20260904201701 27 83 8.0 17.7 0.00 0.00 0.00 76 1013.6
20260904201626 27 93 9.7 17.7 0.00 0.00 0.00 76 1013.7
20260904201510 27 106 6.4 16.1 0.00 0.00 0.00 77 1013.7
20260904201358 27 123 4.8 20.9 0.00 0.00 0.00 76 1013.7
20260904201303 27 124 4.8 20.9 0.00 0.00 0.00 76 1013.8
20260904201207 27 130 8.0 20.9 0.00 0.00 0.00 75 1013.8
20260904201112 27 133 9.7 20.9 0.00 0.00 0.00 75 1013.8
20260904201017 27 131 11.3 20.9 0.00 0.00 0.00 76 1013.8
20260904200901 27 111 11.3 20.9 0.00 0.00 0.00 76 1013.8
20260904200805 27 121 8.0 20.9 0.00 0.00 0.00 77 1013.7
20260904200714 27 95 9.7 20.9 0.00 0.00 0.00 78 1013.7
20260904200619 27 146 12.9 20.9 0.00 0.00 0.00 77 1013.7
20260904200503 27 103 11.3 17.7 0.00 0.00 0.00 77 1013.8
20260904200408 27 130 11.3 17.7 0.00 0.00 0.00 78 1013.8
20260904200312 27 93 9.7 17.7 0.00 0.00 0.00 78 1013.8
20260904200157 27 113 4.8 17.7 0.00 0.00 0.00 80 1013.8
20260904200105 27 121 4.8 24.1 0.00 0.00 0.00 79 1013.7
20260904200030 27 123 8.0 24.1 0.00 0.00 0.00 79 1013.7
20260904195914 27 121 9.7 24.1 0.00 0.00 0.00 79 1013.8
20260904195759 27 103 9.7 24.1 0.00 0.00 0.00 79 1013.7
20260904195704 27 121 11.3 24.1 0.00 0.00 0.00 79 1013.7
20260904195628 27 117 9.7 24.1 0.00 0.00 0.00 79 1013.7
20260904195456 27 108 11.3 24.1 0.00 0.00 0.00 79 1013.8
20260904195421 27 103 14.5 24.1 0.00 0.00 0.00 79 1013.7
20260904195325 27 94 14.5 24.1 0.00 0.00 0.00 80 1013.7
20260904195209 27 98 11.3 20.9 0.00 0.00 0.00 80 1013.7
20260904195114 27 114 8.0 20.9 0.00 0.00 0.00 81 1013.7
20260904194959 27 138 8.0 17.7 0.00 0.00 0.00 80 1013.7
20260904194904 27 137 8.0 17.7 0.00 0.00 0.00 81 1013.7
20260904194829 27 155 3.2 16.1 0.00 0.00 0.00 82 1013.7
20260904194737 27 108 3.2 22.5 0.00 0.00 0.00 81 1013.7
20260904194639 27 94 4.8 22.5 0.00 0.00 0.00 82 1013.6
20260904194456 27 109 6.4 22.5 0.00 0.00 0.00 82 1013.7
20260904194401 27 112 8.0 22.5 0.00 0.00 0.00 82 1013.8
20260904194306 26 168 8.0 22.5 0.00 0.00 0.00 81 1013.7
20260904194211 26 165 9.7 22.5 0.00 0.00 0.00 81 1013.7
20260904194100 26 123 8.0 22.5 0.00 0.00 0.00 81 1013.8
20260904194004 26 157 9.7 22.5 0.00 0.00 0.00 81 1013.8
20260904193909 26 163 11.3 22.5 0.00 0.00 0.00 81 1013.8
20260904193813 26 187 9.7 17.7 0.00 0.00 0.00 81 1013.8
20260904193718 26 179 11.3 17.7 0.00 0.00 0.00 81 1013.9
20260904193643 26 141 11.3 17.7 0.00 0.00 0.00 81 1013.9
20260904193500 26 118 11.3 17.7 0.00 0.00 0.00 81 1013.9
20260904193409 26 109 11.3 17.7 0.00 0.00 0.00 82 1013.9
20260904193314 26 129 12.9 17.7 0.00 0.00 0.00 82 1013.9
20260904193218 26 108 11.3 16.1 0.00 0.00 0.00 82 1013.9
20260904193056 26 168 8.0 16.1 0.00 0.00 0.00 83 1013.9
20260904193021 26 140 9.7 16.1 0.00 0.00 0.00 82 1014.0
20260904192905 26 112 9.7 16.1 0.00 0.00 0.00 82 1014.0
20260904192813 26 140 9.7 16.1 0.00 0.00 0.00 82 1014.0
20260904192719 26 135 8.0 16.1 0.00 0.00 0.00 83 1014.0
20260904192556 26 117 8.0 16.1 0.00 0.00 0.00 82 1014.1
20260904192501 26 135 9.7 16.1 0.00 0.00 0.00 83 1014.0
20260904192406 26 112 8.0 16.1 0.00 0.00 0.00 82 1014.1
20260904192311 26 137 9.7 16.1 0.00 0.00 0.00 82 1014.1
20260904192159 26 114 9.7 16.1 0.00 0.00 0.00 82 1014.1
20260904192104 26 55 9.7 16.1 0.00 0.00 0.00 82 1014.0
20260904192008 26 126 9.7 14.5 0.00 0.00 0.00 82 1014.0
20260904191912 26 130 9.7 12.9 0.00 0.00 0.00 83 1014.1
20260904191757 26 160 9.7 12.9 0.00 0.00 0.00 83 1014.0
20260904191702 26 144 8.0 12.9 0.00 0.00 0.00 83 1014.0
20260904191611 26 125 9.7 14.5 0.00 0.00 0.00 83 1014.0
20260904191535 26 107 9.7 14.5 0.00 0.00 0.00 83 1014.0
20260904191419 26 155 6.4 14.5 0.00 0.00 0.00 84 1014.0
20260904191303 26 123 4.8 14.5 0.00 0.00 0.00 84 1013.9
20260904191227 26 144 6.4 14.5 0.00 0.00 0.00 83 1014.0
20260904191110 26 141 8.0 14.5 0.00 0.00 0.00 84 1014.0
20260904191014 26 148 8.0 14.5 0.00 0.00 0.00 84 1014.0
20260904190903 26 143 9.7 14.5 0.00 0.00 0.00 84 1014.0
20260904190807 25 90 11.3 14.5 0.00 0.00 0.00 84 1014.0
20260904190712 25 135 8.0 14.5 0.00 0.00 0.00 85 1013.9
20260904190617 25 115 4.8 14.5 0.00 0.00 0.00 86 1013.9
20260904190520 25 108 6.4 14.5 0.00 0.00 0.00 85 1013.9
20260904190424 25 90 8.0 14.5 0.00 0.00 0.00 85 1013.9
20260904190308 25 106 8.0 14.5 0.00 0.00 0.00 85 1013.9
20260904190232 25 123 8.0 14.5 0.00 0.00 0.00 85 1013.9
20260904190120 25 130 11.3 14.5 0.00 0.00 0.00 84 1013.9
20260904190024 25 115 8.0 14.5 0.00 0.00 0.00 85 1013.9
20260904185908 25 140 8.0 14.5 0.00 0.00 0.00 84 1013.9
20260904185833 25 169 8.0 14.5 0.00 0.00 0.00 84 1013.9
20260904185657 25 134 9.7 14.5 0.00 0.00 0.00 84 1014.0
20260904185601 25 132 9.7 14.5 0.00 0.00 0.00 84 1013.9
20260904185505 25 107 11.3 14.5 0.00 0.00 0.00 84 1014.0
20260904185414 25 117 9.7 14.5 0.00 0.00 0.00 85 1014.0
20260904185319 25 121 8.0 14.5 0.00 0.00 0.00 85 1014.0
20260904185156 25 115 9.7 14.5 0.00 0.00 0.00 85 1014.0
20260904185101 25 118 9.7 14.5 0.00 0.00 0.00 85 1014.0
20260904185006 25 126 9.7 19.3 0.00 0.00 0.00 84 1014.0
20260904184911 25 109 9.7 19.3 0.00 0.00 0.00 85 1014.0
20260904184759 25 107 8.0 19.3 0.00 0.00 0.00 85 1014.0
20260904184704 25 117 8.0 20.9 0.00 0.00 0.00 85 1014.0
20260904184628 25 130 9.7 20.9 0.00 0.00 0.00 85 1014.0
20260904184511 25 117 8.0 20.9 0.00 0.00 0.00 86 1014.0
20260904184416 25 124 8.0 20.9 0.00 0.00 0.00 85 1014.0
20260904184320 25 106 11.3 20.9 0.00 0.00 0.00 85 1014.1
20260904184158 25 105 14.5 20.9 0.00 0.00 0.00 85 1014.1
20260904184123 25 113 14.5 20.9 0.00 0.00 0.00 85 1014.1
20260904184010 25 103 12.9 20.9 0.00 0.00 0.00 85 1014.1
20260904183915 25 138 12.9 20.9 0.00 0.00 0.00 85 1014.1
20260904183818 25 119 12.9 19.3 0.00 0.00 0.00 85 1014.1
20260904183656 25 121 12.9 19.3 0.00 0.00 0.00 85 1014.1
20260904183601 25 116 9.7 14.5 0.00 0.00 0.00 85 1014.1
20260904183506 25 95 8.0 14.5 0.00 0.00 0.00 85 1014.1
20260904183415 25 132 8.0 14.5 0.00 0.00 0.00 84 1014.1
20260904183319 25 130 6.4 12.9 0.00 0.00 0.00 85 1014.1
20260904183156 25 126 8.0 12.9 0.00 0.00 0.00 85 1014.1
20260904183101 25 90 8.0 14.5 0.00 0.00 0.00 86 1014.1
20260904183005 24 98 6.4 14.5 0.00 0.00 0.00 86 1014.1
20260904182910 24 86 4.8 14.5 0.00 0.00 0.00 86 1014.1
20260904182759 24 123 4.8 14.5 0.00 0.00 0.00 86 1014.1
20260904182723 24 123 3.2 14.5 0.00 0.00 0.00 86 1014.1
20260904182600 24 132 3.2 14.5 0.00 0.00 0.00 85 1014.1
20260904182505 24 132 6.4 16.1 0.00 0.00 0.00 84 1014.0
20260904182410 24 132 9.7 16.1 0.00 0.00 0.00 84 1014.0
20260904182259 24 124 11.3 16.1 0.00 0.00 0.00 85 1014.1
20260904182203 24 114 9.7 16.1 0.00 0.00 0.00 86 1014.1
20260904182108 24 136 9.7 16.1 0.00 0.00 0.00 86 1014.1
20260904182012 24 93 9.7 16.1 0.00 0.00 0.00 86 1014.1
20260904181857 24 96 9.7 16.1 0.00 0.00 0.00 87 1014.1
20260904181821 24 84 9.7 16.1 0.00 0.00 0.00 87 1014.1
20260904181704 24 78 11.3 16.1 0.00 0.00 0.00 87 1014.1
20260904181612 24 70 9.7 16.1 0.00 0.00 0.00 87 1014.1
20260904181457 23 63 8.0 16.1 0.00 0.00 0.00 87 1014.1
20260904181420 23 149 8.0 16.1 0.00 0.00 0.00 87 1014.1
20260904181258 23 101 12.9 16.1 0.00 0.00 0.00 87 1014.1
20260904181203 23 87 9.7 16.1 0.00 0.00 0.00 88 1014.1
20260904181108 23 102 8.0 16.1 0.00 0.00 0.00 88 1014.1
20260904180957 23 84 6.4 16.1 0.00 0.00 0.00 87 1014.1
20260904180901 23 96 9.7 16.1 0.00 0.00 0.00 87 1014.1
20260904180806 23 111 11.3 16.1 0.00 0.00 0.00 87 1014.2
20260904180709 23 105 9.7 16.1 0.00 0.00 0.00 87 1014.1
20260904180611 23 106 8.0 16.1 0.00 0.00 0.00 88 1014.1
20260904180500 23 110 4.8 16.1 0.00 0.00 0.00 88 1014.2
20260904180403 23 133 6.4 16.1 0.00 0.00 0.00 88 1014.1
20260904180308 23 82 8.0 16.1 0.00 0.00 0.00 88 1014.1
20260904180233 23 88 9.7 16.1 0.00 0.00 0.00 89 1014.1
20260904180116 23 88 9.7 20.9 0.00 0.00 0.00 88 1014.1
20260904180041 23 118 9.7 20.9 0.00 0.00 0.00 89 1014.2
20260904175858 23 102 9.7 20.9 0.00 0.00 0.00 89 1014.3
20260904175807 23 107 11.3 20.9 0.00 0.00 0.00 89 1014.3
20260904175712 23 99 9.7 20.9 0.00 0.00 0.00 89 1014.2
20260904175616 22 107 9.7 20.9 0.00 0.00 0.00 89 1014.1
20260904175541 22 113 11.3 20.9 0.00 0.00 0.00 89 1014.3
20260904175358 22 94 14.5 20.9 0.00 0.00 0.00 89 1014.3
20260904175301 22 93 12.9 20.9 0.00 0.00 0.00 90 1014.3
20260904175205 22 111 12.9 19.3 0.00 0.00 0.00 89 1014.3
20260904175113 22 106 14.5 19.3 0.00 0.00 0.00 89 1014.3
20260904175018 22 107 14.5 19.3 0.00 0.00 0.00 89 1014.3
20260904174856 22 115 14.5 20.9 0.00 0.00 0.00 89 1014.3
20260904174801 22 116 12.9 20.9 0.00 0.00 0.00 89 1014.3
20260904174726 22 124 12.9 20.9 0.00 0.00 0.00 89 1014.3
20260904174610 22 121 12.9 20.9 0.00 0.00 0.00 90 1014.3
20260904174518 22 146 12.9 20.9 0.00 0.00 0.00 90 1014.2
20260904174356 22 121 12.9 20.9 0.00 0.00 0.00 90 1014.2
20260904174320 22 125 14.5 20.9 0.00 0.00 0.00 89 1014.2
20260904174158 22 93 16.1 20.9 0.00 0.00 0.00 89 1014.3
20260904174103 22 128 14.5 20.9 0.00 0.00 0.00 89 1014.3
20260904174028 22 141 12.9 20.9 0.00 0.00 0.00 89 1014.3
20260904173856 23 144 12.9 20.9 0.00 0.00 0.00 89 1014.3
20260904173759 23 128 14.5 20.9 0.00 0.00 0.00 90 1014.3
20260904173703 23 102 14.5 20.9 0.00 0.00 0.00 90 1014.3
20260904173608 23 115 14.5 20.9 0.00 0.00 0.00 90 1014.3
20260904173513 23 114 12.9 20.9 0.00 0.00 0.00 90 1014.3
20260904173418 23 98 12.9 20.9 0.00 0.00 0.00 90 1014.2
20260904173322 23 92 16.1 20.9 0.00 0.00 0.00 90 1014.3
20260904173209 23 85 16.1 20.9 0.00 0.00 0.00 90 1014.3
20260904173114 23 103 16.1 19.3 0.00 0.00 0.00 90 1014.2
20260904173018 23 113 12.9 19.3 0.00 0.00 0.00 91 1014.1
20260904172856 22 104 11.3 19.3 0.00 0.00 0.00 91 1014.2
20260904172821 22 128 11.3 19.3 0.00 0.00 0.00 91 1014.1
20260904172705 22 117 11.3 22.5 0.00 0.00 0.00 92 1014.1
20260904172630 22 114 11.3 22.5 0.00 0.00 0.00 91 1014.1
20260904172517 22 87 11.3 22.5 0.00 0.00 0.00 92 1014.1
20260904172420 22 93 11.3 22.5 0.00 0.00 0.00 91 1014.1
20260904172257 22 92 12.9 24.1 0.00 0.00 0.00 92 1014.0
20260904172202 22 107 14.5 24.1 0.00 0.00 0.00 92 1014.1
20260904172127 22 89 14.5 24.1 0.00 0.00 0.00 92 1014.0
20260904172011 22 46 16.1 24.1 0.00 0.00 0.00 91 1014.0
20260904171935 22 94 16.1 24.1 0.00 0.00 0.00 91 1014.1
20260904171819 22 90 17.7 24.1 0.00 0.00 0.00 91 1014.1
20260904171707 22 101 17.7 24.1 0.00 0.00 0.00 91 1014.1
20260904171612 22 88 17.7 24.1 0.00 0.00 0.00 91 1014.0
20260904171456 22 96 16.1 20.9 0.00 0.00 0.00 92 1014.0
20260904171401 22 76 16.1 20.9 0.00 0.00 0.00 91 1014.0
20260904171306 22 95 14.5 20.9 0.00 0.00 0.00 92 1014.0
20260904171211 22 105 16.1 20.9 0.00 0.00 0.00 92 1014.0
20260904171058 22 92 14.5 20.9 0.00 0.00 0.00 92 1014.0
20260904171003 22 107 14.5 17.7 0.00 0.00 0.00 92 1013.9
20260904170907 22 96 12.9 17.7 0.00 0.00 0.00 92 1013.9
20260904170812 23 90 12.9 17.7 0.00 0.00 0.00 93 1013.9
20260904170656 22 96 11.3 17.7 0.00 0.00 0.00 93 1013.8
20260904170621 22 111 11.3 17.7 0.00 0.00 0.00 93 1013.8
20260904170509 23 94 11.3 17.7 0.00 0.00 0.00 93 1013.8
20260904170433 23 117 11.3 16.1 0.00 0.00 0.00 93 1013.8
20260904170257 23 128 11.3 17.7 0.00 0.00 0.00 93 1013.8
20260904170202 23 131 11.3 17.7 0.00 0.00 0.00 93 1013.8
20260904170106 23 97 11.3 17.7 0.00 0.00 0.00 93 1013.9
20260904170031 22 105 9.7 17.7 0.00 0.00 0.00 93 1013.9
20260904165934 22 116 9.7 17.7 0.00 0.00 0.00 93 1013.8
20260904165822 22 126 9.7 17.7 0.00 0.00 0.00 93 1013.8
20260904165706 22 96 11.3 17.7 0.00 0.00 0.00 93 1013.8
20260904165611 22 124 12.9 17.7 0.00 0.00 0.00 93 1013.8
20260904165516 22 109 12.9 17.7 0.00 0.00 0.00 93 1013.8
20260904165440 22 113 12.9 19.3 0.00 0.00 0.00 94 1013.8
20260904165344 22 132 12.9 19.3 0.00 0.00 0.00 94 1013.8
20260904165200 22 111 11.3 19.3 0.00 0.00 0.00 94 1013.8
20260904165125 22 70 12.9 19.3 0.00 0.00 0.00 94 1013.8
20260904165033 22 117 12.9 19.3 0.00 0.00 0.00 94 1013.8
20260904164857 22 119 11.3 19.3 0.00 0.00 0.00 94 1013.8
20260904164822 22 111 12.9 19.3 0.00 0.00 0.00 94 1013.8
20260904164706 22 109 14.5 19.3 0.00 0.00 0.00 94 1013.8
20260904164611 22 101 12.9 19.3 0.00 0.00 0.00 94 1013.8
20260904164515 22 114 11.3 17.7 0.00 0.00 0.00 94 1013.8
20260904164404 22 79 11.3 17.7 0.00 0.00 0.00 94 1013.8
20260904164309 22 117 12.9 17.7 0.00 0.00 0.00 94 1013.8
20260904164214 22 106 14.5 17.7 0.00 0.00 0.00 94 1013.7
20260904164119 22 99 12.9 17.7 0.00 0.00 0.00 94 1013.8
20260904163956 22 108 11.3 17.7 0.00 0.00 0.00 94 1013.9
20260904163901 22 121 12.9 19.3 0.00 0.00 0.00 94 1013.9
20260904163810 22 101 12.9 19.3 0.00 0.00 0.00 94 1013.9
20260904163735 22 110 12.9 19.3 0.00 0.00 0.00 94 1013.9
20260904163559 22 104 12.9 19.3 0.00 0.00 0.00 94 1013.8
20260904163524 22 76 11.3 19.3 0.00 0.00 0.00 94 1013.7
20260904163408 22 96 11.3 19.3 0.00 0.00 0.00 94 1013.7
20260904163313 22 126 11.3 19.3 0.00 0.00 0.00 94 1013.8
20260904163217 22 119 12.9 19.3 0.00 0.00 0.00 94 1013.7
20260904163104 22 118 12.9 19.3 0.00 0.00 0.00 94 1013.6
20260904163029 23 134 12.9 19.3 0.00 0.00 0.00 95 1013.6
20260904162913 23 109 12.9 19.3 0.00 0.00 0.00 94 1013.6
20260904162818 23 93 12.9 19.3 0.00 0.00 0.00 95 1013.6
20260904162656 23 118 9.7 19.3 0.00 0.00 0.00 95 1013.7
20260904162601 23 100 8.0 16.1 0.00 0.00 0.00 95 1013.6
20260904162506 23 130 9.7 16.1 0.00 0.00 0.00 95 1013.7
20260904162415 23 102 8.0 16.1 0.00 0.00 0.00 95 1013.7
20260904162320 23 135 9.7 16.1 0.00 0.00 0.00 94 1013.6
20260904162157 23 127 12.9 16.1 0.00 0.00 0.00 95 1013.5
20260904162102 23 110 9.7 16.1 0.00 0.00 0.00 95 1013.5
20260904162005 23 93 9.7 17.7 0.00 0.00 0.00 95 1013.5
20260904161909 23 91 11.3 17.7 0.00 0.00 0.00 95 1013.5
20260904161818 23 105 12.9 19.3 0.00 0.00 0.00 95 1013.4
20260904161656 23 109 12.9 19.3 0.00 0.00 0.00 95 1013.4
20260904161559 23 103 12.9 19.3 0.00 0.00 0.00 95 1013.4
20260904161524 23 113 12.9 19.3 0.00 0.00 0.00 95 1013.3
20260904161407 23 130 11.3 19.3 0.00 0.00 0.00 95 1013.3
20260904161312 23 107 11.3 19.3 0.00 0.00 0.00 95 1013.2
20260904161220 23 115 11.3 19.3 0.00 0.00 0.00 95 1013.3
20260904161058 23 119 14.5 19.3 0.00 0.00 0.00 95 1013.2
20260904161002 23 99 12.9 19.3 0.00 0.00 0.00 95 1013.2
20260904160906 23 115 11.3 19.3 0.00 0.00 0.00 95 1013.3
20260904160810 23 113 11.3 16.1 0.00 0.00 0.00 95 1013.3
20260904160715 23 123 11.3 16.1 0.00 0.00 0.00 95 1013.3
20260904160603 23 114 11.3 16.1 0.00 0.00 0.00 95 1013.3
20260904160508 23 115 9.7 16.1 0.00 0.00 0.00 95 1013.3
20260904160433 23 108 9.7 16.1 0.00 0.00 0.00 95 1013.3
20260904160257 23 100 9.7 16.1 0.00 0.00 0.00 95 1013.3
20260904160222 23 115 9.7 16.1 0.00 0.00 0.00 95 1013.3
20260904160100 23 107 9.7 16.1 0.00 0.00 0.00 94 1013.3
20260904160009 23 110 9.7 16.1 0.00 0.00 0.00 94 1013.3
20260904155912 23 107 11.3 16.1 0.00 0.00 0.00 94 1013.4
20260904155756 23 88 11.3 16.1 0.00 0.00 0.00 94 1013.3
20260904155701 23 109 11.3 16.1 0.00 0.00 0.00 94 1013.3
20260904155606 23 105 9.7 16.1 0.00 0.00 0.00 94 1013.3
20260904155511 23 78 8.0 14.5 0.00 0.00 0.00 94 1013.3
20260904155400 23 95 8.0 14.5 0.00 0.00 0.00 94 1013.3
20260904155307 23 96 8.0 14.5 0.00 0.00 0.00 94 1013.3
20260904155209 23 56 9.7 14.5 0.00 0.00 0.00 94 1013.3
20260904155114 23 98 9.7 14.5 0.00 0.00 0.00 94 1013.3
20260904154959 23 109 9.7 14.5 0.00 0.00 0.00 94 1013.3
20260904154904 23 94 11.3 14.5 0.00 0.00 0.00 94 1013.2
20260904154812 23 86 11.3 14.5 0.00 0.00 0.00 94 1013.2
20260904154657 23 97 9.7 14.5 0.00 0.00 0.00 94 1013.2
20260904154622 23 81 8.0 14.5 0.00 0.00 0.00 94 1013.2
20260904154459 23 37 4.8 14.5 0.00 0.00 0.00 94 1013.2
20260904154404 23 99 4.8 14.5 0.00 0.00 0.00 94 1013.2
20260904154309 23 99 6.4 14.5 0.00 0.00 0.00 94 1013.2
20260904154158 23 94 6.4 14.5 0.00 0.00 0.00 94 1013.1
20260904154103 23 99 9.7 14.5 0.00 0.00 0.00 94 1013.1
20260904154007 23 96 11.3 14.5 0.00 0.00 0.00 94 1013.1
20260904153912 23 92 11.3 12.9 0.00 0.00 0.00 94 1013.1
20260904153757 23 111 9.7 14.5 0.00 0.00 0.00 94 1013.2
20260904153702 23 106 6.4 14.5 0.00 0.00 0.00 94 1013.2
20260904153611 23 133 6.4 14.5 0.00 0.00 0.00 94 1013.2
20260904153536 23 116 8.0 14.5 0.00 0.00 0.00 94 1013.1
20260904153419 23 102 9.7 14.5 0.00 0.00 0.00 94 1013.1
20260904153323 23 108 8.0 14.5 0.00 0.00 0.00 93 1013.0
20260904153207 23 104 9.7 14.5 0.00 0.00 0.00 93 1013.0
20260904153111 23 99 9.7 14.5 0.00 0.00 0.00 93 1013.0
20260904152956 23 97 11.3 14.5 0.00 0.00 0.00 93 1013.0
20260904152905 23 96 11.3 14.5 0.00 0.00 0.00 93 1013.0
20260904152807 23 93 9.7 14.5 0.00 0.00 0.00 93 1013.0
20260904152712 23 104 6.4 14.5 0.00 0.00 0.00 93 1013.0
20260904152617 23 98 6.4 14.5 0.00 0.00 0.00 93 1012.9
20260904152501 23 98 9.7 14.5 0.00 0.00 0.00 93 1013.0
20260904152426 23 106 9.7 14.5 0.00 0.00 0.00 93 1012.9
20260904152310 23 92 11.3 14.5 0.00 0.00 0.00 93 1012.9
20260904152158 23 99 9.7 14.5 0.00 0.00 0.00 93 1012.9
20260904152103 23 88 11.3 14.5 0.00 0.00 0.00 93 1012.8
20260904152007 23 103 11.3 14.5 0.00 0.00 0.00 93 1012.8
20260904151912 23 94 11.3 14.5 0.00 0.00 0.00 93 1012.9
20260904151757 23 94 11.3 14.5 0.00 0.00 0.00 93 1012.7
20260904151700 23 94 9.7 14.5 0.00 0.00 0.00 93 1012.7
20260904151609 23 115 9.7 14.5 0.00 0.00 0.00 93 1012.7
20260904151514 23 113 9.7 14.5 0.00 0.00 0.00 93 1012.7
20260904151359 23 109 8.0 14.5 0.00 0.00 0.00 93 1012.7
20260904151304 23 85 8.0 14.5 0.00 0.00 0.00 93 1012.7
20260904151228 23 115 8.0 14.5 0.00 0.00 0.00 93 1012.7
20260904151112 23 119 8.0 14.5 0.00 0.00 0.00 93 1012.7
20260904151001 23 93 8.0 12.9 0.00 0.00 0.00 93 1012.6
20260904150906 23 94 9.7 12.9 0.00 0.00 0.00 93 1012.7
20260904150810 23 93 8.0 12.9 0.00 0.00 0.00 93 1012.7
20260904150715 23 97 8.0 12.9 0.00 0.00 0.00 93 1012.6
20260904150619 23 122 8.0 12.9 0.00 0.00 0.00 94 1012.6
20260904150503 23 101 6.4 9.7 0.00 0.00 0.00 94 1012.6
20260904150412 23 119 8.0 9.7 0.00 0.00 0.00 94 1012.6
20260904150256 23 110 6.4 11.3 0.00 0.00 0.00 94 1012.6
20260904150221 23 111 4.8 11.3 0.00 0.00 0.00 94 1012.6
20260904150104 23 111 4.8 11.3 0.00 0.00 0.00 94 1012.6
20260904150009 23 111 4.8 11.3 0.00 0.00 0.00 94 1012.6
20260904145913 23 112 4.8 11.3 0.00 0.00 0.00 94 1012.6
20260904145818 23 112 4.8 11.3 0.00 0.00 0.00 94 1012.5
20260904145725 23 113 6.4 11.3 0.00 0.00 0.00 94 1012.6
20260904145609 23 113 6.4 11.3 0.00 0.00 0.00 94 1012.6
20260904145514 23 99 4.8 11.3 0.00 0.00 0.00 95 1012.5
20260904145358 23 111 4.8 6.4 0.00 0.00 0.00 95 1012.5
20260904145305 23 112 3.2 6.4 0.00 0.00 0.00 95 1012.6
20260904145207 23 112 3.2 6.4 0.00 0.00 0.00 95 1012.6
20260904145056 23 112 3.2 6.4 0.00 0.00 0.00 95 1012.5
20260904145001 23 136 1.6 6.4 0.00 0.00 0.00 95 1012.5
20260904144906 23 136 3.2 6.4 0.00 0.00 0.00 95 1012.5
20260904144830 23 136 3.2 6.4 0.00 0.00 0.00 95 1012.5
20260904144714 23 136 3.2 6.4 0.00 0.00 0.00 95 1012.5
20260904144559 23 136 4.8 6.4 0.00 0.00 0.00 95 1012.5
20260904144507 23 136 4.8 6.4 0.00 0.00 0.00 95 1012.5
20260904144412 23 137 3.2 6.4 0.00 0.00 0.00 95 1012.5
20260904144257 22 150 1.6 8.0 0.00 0.00 0.00 95 1012.4
20260904144202 22 150 1.6 8.0 0.00 0.00 0.00 95 1012.3
20260904144127 22 150 3.2 8.0 0.00 0.00 0.00 96 1012.3
20260904144011 22 150 3.2 8.0 0.00 0.00 0.00 95 1012.3
20260904143859 22 150 3.2 8.0 0.00 0.00 0.00 96 1012.4
20260904143803 22 198 1.6 8.0 0.00 0.00 0.00 96 1012.4
20260904143708 22 199 1.6 8.0 0.00 0.00 0.00 96 1012.4
20260904143613 22 199 1.6 8.0 0.00 0.00 0.00 96 1012.3
20260904143518 22 199 3.2 8.0 0.00 0.00 0.00 96 1012.3
20260904143401 22 199 4.8 8.0 0.00 0.00 0.00 96 1012.2
20260904143326 22 199 6.4 9.7 0.00 0.00 0.00 96 1012.2
20260904143209 22 199 6.4 9.7 0.00 0.00 0.00 96 1012.2
20260904143058 22 199 6.4 9.7 0.00 0.00 0.00 96 1012.2
20260904143003 22 207 6.4 9.7 0.00 0.00 0.00 96 1012.2
20260904142927 22 209 4.8 9.7 0.00 0.00 0.00 96 1012.2
20260904142811 22 209 4.8 9.7 0.00 0.00 0.00 96 1012.2
20260904142656 22 209 4.8 9.7 0.00 0.00 0.00 96 1012.2
20260904142600 22 203 6.4 9.7 0.00 0.00 0.00 96 1012.1
20260904142509 22 202 6.4 9.7 0.00 0.00 0.00 97 1012.1
20260904142414 22 195 6.4 9.7 0.00 0.00 0.00 97 1012.1
20260904142258 22 188 6.4 9.7 0.00 0.00 0.00 97 1012.0
20260904142204 22 188 6.4 9.7 0.00 0.00 0.00 97 1012.0
20260904142109 22 183 6.4 9.7 0.00 0.00 0.00 97 1012.0
20260904142034 22 186 6.4 9.7 0.00 0.00 0.00 97 1012.1
20260904141901 22 188 6.4 9.7 0.00 0.00 0.00 97 1012.0
20260904141805 22 185 6.4 9.7 0.00 0.00 0.00 97 1012.0
20260904141710 22 178 6.4 9.7 0.00 0.00 0.00 97 1012.0
20260904141615 22 173 6.4 8.0 0.00 0.00 0.00 97 1012.1
20260904141540 22 171 4.8 6.4 0.00 0.00 0.00 97 1012.0
20260904141443 22 171 4.8 9.7 0.00 0.00 0.00 97 1012.0
20260904141300 22 170 3.2 9.7 0.00 0.00 0.00 97 1012.0
20260904141209 22 171 3.2 9.7 0.00 0.00 0.00 97 1012.0
20260904141114 22 171 3.2 9.7 0.00 0.00 0.00 97 1012.0
20260904141019 22 171 6.4 9.7 0.00 0.00 0.00 97 1011.9
20260904140923 22 171 6.4 9.7 0.00 0.00 0.00 97 1011.9
20260904140806 22 167 6.4 9.7 0.00 0.00 0.00 97 1011.9
20260904140711 22 166 6.4 9.7 0.00 0.00 0.00 97 1011.9
20260904140615 22 165 3.2 8.0 0.00 0.00 0.00 97 1012.0
20260904140504 21 153 1.6 4.8 0.00 0.00 0.00 97 1012.0
20260904140409 21 153 1.6 4.8 0.00 0.00 0.00 97 1012.0
20260904140313 21 153 3.2 4.8 0.00 0.00 0.00 97 1012.1
20260904140159 21 153 1.6 4.8 0.00 0.00 0.00 97 1012.1
20260904140008 21 153 3.2 4.8 0.00 0.00 0.00 97 1012.1
20260904135856 21 153 3.2 4.8 0.00 0.00 0.00 97 1012.2
20260904135801 21 153 1.6 4.8 0.00 0.00 0.00 97 1012.1
20260904135706 21 153 3.2 4.8 0.00 0.00 0.00 97 1012.1
20260904135631 21 153 3.2 4.8 0.00 0.00 0.00 97 1012.1
20260904135535 21 153 3.2 4.8 0.00 0.00 0.00 97 1012.1
20260904135358 21 153 0.0 4.8 0.00 0.00 0.00 97 1012.1
20260904135306 21 90 0.0 3.2 0.00 0.00 0.00 97 1012.2
20260904135212 21 90 0.0 3.2 0.00 0.00 0.00 97 1012.2
20260904135057 21 90 0.0 3.2 0.00 0.00 0.00 97 1012.2
20260904135002 21 90 0.0 3.2 0.00 0.00 0.00 97 1012.2
20260904134907 21 90 0.0 3.2 0.00 0.00 0.00 97 1012.2
20260904134812 21 90 0.0 3.2 0.00 0.00 0.00 97 1012.1
20260904134717 21 90 1.6 3.2 0.00 0.00 0.00 97 1012.2
20260904134605 21 90 1.6 3.2 0.00 0.00 0.00 97 1012.1
20260904134509 21 90 1.6 3.2 0.00 0.00 0.00 97 1012.1
20260904134415 21 90 1.6 3.2 0.00 0.00 0.00 97 1012.1
20260904134320 21 90 0.0 3.2 0.00 0.00 0.00 97 1012.1
20260904134157 21 90 1.6 3.2 0.00 0.00 0.00 96 1012.1
20260904134101 21 90 1.6 3.2 0.00 0.00 0.00 96 1012.2
20260904134008 21 90 1.6 4.8 0.00 0.00 0.00 96 1012.2
20260904133934 20 90 1.6 4.8 0.00 0.00 0.00 96 1012.2
20260904133818 20 90 1.6 4.8 0.00 0.00 0.00 96 1012.1
20260904133702 20 90 0.0 4.8 0.00 0.00 0.00 96 1012.1
20260904133606 20 90 0.0 4.8 0.00 0.00 0.00 96 1012.2
20260904133511 20 90 1.6 4.8 0.00 0.00 0.00 96 1012.2
20260904133400 20 90 1.6 4.8 0.00 0.00 0.00 96 1012.2
20260904133305 20 90 3.2 6.4 0.00 0.00 0.00 96 1012.2
20260904133229 20 90 3.2 6.4 0.00 0.00 0.00 96 1012.2
20260904133113 20 90 3.2 6.4 0.00 0.00 0.00 96 1012.2
20260904133018 20 90 3.2 6.4 0.00 0.00 0.00 96 1012.2
20260904132922 20 90 3.2 6.4 0.00 0.00 0.00 96 1012.2
20260904132759 20 90 3.2 6.4 0.00 0.00 0.00 96 1012.3
20260904132709 20 90 3.2 8.0 0.00 0.00 0.00 96 1012.3
20260904132613 20 90 3.2 9.7 0.00 0.00 0.00 96 1012.2
20260904132517 20 90 3.2 9.7 0.00 0.00 0.00 96 1012.2
20260904132443 20 90 3.2 9.7 0.00 0.00 0.00 96 1012.3
20260904132300 20 74 3.2 9.7 0.00 0.00 0.00 96 1012.3
20260904132204 20 74 3.2 9.7 0.00 0.00 0.00 96 1012.3
20260904132109 20 74 3.2 9.7 0.00 0.00 0.00 96 1012.3
20260904132018 20 74 4.8 9.7 0.00 0.00 0.00 96 1012.2
20260904131902 20 74 6.4 9.7 0.00 0.00 0.00 96 1012.3
20260904131806 20 67 6.4 9.7 0.00 0.00 0.00 96 1012.3
20260904131711 21 86 4.8 9.7 0.00 0.00 0.00 96 1012.3
20260904131556 21 87 4.8 9.7 0.00 0.00 0.00 96 1012.2
20260904131500 21 88 6.4 9.7 0.00 0.00 0.00 96 1012.2
20260904131409 21 94 6.4 9.7 0.00 0.00 0.00 96 1012.2
20260904131314 21 94 4.8 11.3 0.00 0.00 0.00 96 1012.2
20260904131159 21 107 6.4 11.3 0.00 0.00 0.00 96 1012.1
20260904131103 21 108 4.8 11.3 0.00 0.00 0.00 96 1012.2
20260904131006 21 112 4.8 11.3 0.00 0.00 0.00 96 1012.1
20260904130930 21 110 6.4 11.3 0.00 0.00 0.00 96 1012.1
20260904130759 21 111 6.4 11.3 0.00 0.00 0.00 96 1012.1
20260904130703 21 115 6.4 11.3 0.00 0.00 0.00 96 1012.2
20260904130608 21 95 8.0 11.3 0.00 0.00 0.00 96 1012.2
20260904130513 21 101 8.0 11.3 0.00 0.00 0.00 96 1012.1
20260904130358 21 93 8.0 11.3 0.00 0.00 0.00 96 1012.1
20260904130303 21 95 8.0 11.3 0.00 0.00 0.00 96 1012.1
20260904130212 21 101 6.4 11.3 0.00 0.00 0.00 96 1012.1
20260904130057 21 93 4.8 9.7 0.00 0.00 0.00 96 1012.1
20260904130001 21 105 4.8 9.7 0.00 0.00 0.00 96 1012.1
20260904125906 21 105 4.8 12.9 0.00 0.00 0.00 96 1012.1
20260904125810 21 88 4.8 12.9 0.00 0.00 0.00 96 1012.1
20260904125659 21 94 4.8 12.9 0.00 0.00 0.00 96 1012.1
20260904125604 21 89 4.8 12.9 0.00 0.00 0.00 96 1012.1
20260904125509 21 86 3.2 12.9 0.00 0.00 0.00 96 1012.1
20260904125414 21 86 3.2 12.9 0.00 0.00 0.00 96 1012.1
20260904125319 21 85 4.8 12.9 0.00 0.00 0.00 96 1012.1
20260904125243 21 84 6.4 12.9 0.00 0.00 0.00 95 1012.1
20260904125059 21 82 8.0 12.9 0.00 0.00 0.00 95 1012.0
20260904125009 21 81 8.0 12.9 0.00 0.00 0.00 95 1012.0
20260904124914 21 60 6.4 12.9 0.00 0.00 0.00 95 1012.0
20260904124758 21 85 6.4 11.3 0.00 0.00 0.00 95 1011.9
20260904124702 21 85 4.8 11.3 0.00 0.00 0.00 95 1011.9
20260904124605 21 90 4.8 11.3 0.00 0.00 0.00 95 1011.9
20260904124508 21 77 6.4 11.3 0.00 0.00 0.00 95 1011.9
20260904124418 21 76 6.4 11.3 0.00 0.00 0.00 95 1011.9
20260904124343 21 65 4.8 9.7 0.00 0.00 0.00 95 1011.9
20260904124200 21 111 4.8 9.7 0.00 0.00 0.00 96 1011.9
20260904124125 21 112 4.8 9.7 0.00 0.00 0.00 96 1011.9
20260904124008 21 112 6.4 9.7 0.00 0.00 0.00 96 1011.9
20260904123914 21 113 6.4 9.7 0.00 0.00 0.00 96 1012.0
20260904123758 21 115 4.8 9.7 0.00 0.00 0.00 96 1011.8
20260904123705 21 119 3.2 6.4 0.00 0.00 0.00 96 1011.8
20260904123610 21 119 3.2 6.4 0.00 0.00 0.00 96 1011.8
20260904123515 21 120 3.2 6.4 0.00 0.00 0.00 96 1011.7
20260904123420 21 120 3.2 6.4 0.00 0.00 0.00 96 1011.7